EA1FJG Weather Reports


Display with metric or nautical units.
time (UTC)temp
F
wind
direction
speed
MPH
gust
MPH
rain 1hr
in
rain 24hr
in
rain mn
in
humidity
%
barometer
mb
20260904202903 67 0 0.0 0.0 0.00 0.00 0.00 95 1022.8
20260904202824 67 0 0.0 0.0 0.00 0.00 0.00 95 1022.7
20260904202703 67 0 0.0 0.0 0.00 0.00 0.00 94 1022.8
20260904202603 67 0 0.0 0.0 0.00 0.00 0.00 94 1022.8
20260904202503 67 0 0.0 0.0 0.00 0.00 0.00 94 1022.8
20260904202403 67 0 0.0 0.0 0.00 0.00 0.00 94 1022.8
20260904202305 67 0 0.0 0.0 0.00 0.00 0.00 94 1022.8
20260904202203 67 0 0.0 0.0 0.00 0.00 0.00 94 1022.8
20260904202103 67 0 0.0 0.0 0.00 0.00 0.00 94 1022.6
20260904202025 67 0 0.0 0.0 0.00 0.00 0.00 94 1022.8
20260904201903 67 0 0.0 0.0 0.00 0.00 0.00 94 1022.7
20260904201824 67 0 0.0 0.0 0.00 0.00 0.00 94 1022.7
20260904201703 67 0 0.0 0.0 0.00 0.00 0.00 94 1022.7
20260904201603 67 0 0.0 0.0 0.00 0.00 0.00 94 1022.7
20260904201503 67 0 0.0 0.0 0.00 0.00 0.00 94 1022.8
20260904201403 67 0 0.0 0.0 0.00 0.00 0.00 94 1022.6
20260904201304 67 0 0.0 0.0 0.00 0.00 0.00 94 1022.7
20260904201203 67 0 0.0 0.0 0.00 0.00 0.00 94 1022.8
20260904201103 67 0 0.0 0.0 0.00 0.00 0.00 94 1022.9
20260904201003 67 24 0.0 1.0 0.00 0.00 0.00 94 1022.7
20260904200903 67 22 0.0 1.0 0.00 0.00 0.00 94 1022.6
20260904200803 67 19 0.0 1.0 0.00 0.00 0.00 94 1022.7
20260904200703 67 19 0.0 1.0 0.00 0.00 0.00 94 1022.7
20260904200624 67 17 0.0 1.0 0.00 0.00 0.00 94 1022.7
20260904200503 67 17 0.0 1.0 0.00 0.00 0.00 94 1022.5
20260904200403 67 14 0.0 1.0 0.00 0.00 0.00 94 1022.8
20260904200324 67 14 0.0 1.0 0.00 0.00 0.00 94 1022.6
20260904200224 67 14 0.0 1.0 0.00 0.00 0.00 94 1022.6
20260904200104 67 12 0.0 1.0 0.00 0.00 0.00 94 1022.6
20260904200003 67 7 0.0 1.0 0.00 0.00 0.00 94 1022.7
20260904195903 67 4 0.0 1.0 0.00 0.00 0.00 94 1022.8
20260904195804 67 3 0.0 1.0 0.00 0.00 0.00 94 1022.6
20260904195703 67 3 0.0 1.0 0.00 0.00 0.00 94 1022.8
20260904195603 67 1 0.0 1.0 0.00 0.00 0.00 94 1022.7
20260904195504 67 1 0.0 1.0 0.00 0.00 0.00 93 1022.6
20260904195403 67 1 0.0 1.0 0.00 0.00 0.00 93 1022.6
20260904195329 67 1 0.0 1.0 0.00 0.00 0.00 93 1022.8
20260904195203 67 3 0.0 1.0 0.00 0.00 0.00 93 1022.8
20260904195103 67 4 0.0 1.0 0.00 0.00 0.00 93 1022.5
20260904195003 67 4 0.0 1.0 0.00 0.00 0.00 93 1022.7
20260904194903 68 5 0.0 1.0 0.00 0.00 0.00 93 1022.7
20260904194803 68 6 0.0 1.0 0.00 0.00 0.00 93 1022.8
20260904194704 68 6 0.0 1.0 0.00 0.00 0.00 93 1022.7
20260904194603 68 6 0.0 1.0 0.00 0.00 0.00 93 1022.6
20260904194503 68 6 0.0 1.0 0.00 0.00 0.00 93 1022.5
20260904194403 68 6 0.0 1.0 0.00 0.00 0.00 93 1022.6
20260904194303 68 6 0.0 1.0 0.00 0.00 0.00 93 1022.6
20260904194224 68 6 0.0 1.0 0.00 0.00 0.00 92 1022.5
20260904194103 68 6 0.0 1.0 0.00 0.00 0.00 92 1022.7
20260904194003 68 0 0.0 0.0 0.00 0.00 0.00 92 1022.5
20260904193903 68 0 0.0 0.0 0.00 0.00 0.00 92 1022.4
20260904193803 68 0 0.0 0.0 0.00 0.00 0.00 92 1022.3
20260904193703 68 0 0.0 0.0 0.00 0.00 0.00 92 1022.3
20260904193603 68 0 0.0 0.0 0.00 0.00 0.00 92 1022.4
20260904193503 68 0 0.0 0.0 0.00 0.00 0.00 92 1022.4
20260904193403 68 0 0.0 0.0 0.00 0.00 0.00 92 1022.4
20260904193303 68 0 0.0 0.0 0.00 0.00 0.00 92 1022.4
20260904193203 68 0 0.0 0.0 0.00 0.00 0.00 91 1022.3
20260904193103 68 0 0.0 0.0 0.00 0.00 0.00 91 1022.4
20260904193024 69 6 0.0 1.0 0.00 0.00 0.00 91 1022.5
20260904192903 69 6 0.0 1.0 0.00 0.00 0.00 91 1022.3
20260904192804 69 6 0.0 1.0 0.00 0.00 0.00 91 1022.4
20260904192703 69 6 0.0 1.0 0.00 0.00 0.00 91 1022.3
20260904192603 69 6 0.0 1.0 0.00 0.00 0.00 91 1022.3
20260904192503 69 6 0.0 1.0 0.00 0.00 0.00 91 1022.4
20260904192403 69 5 0.0 1.0 0.00 0.00 0.00 91 1022.4
20260904192306 69 5 0.0 1.0 0.00 0.00 0.00 91 1022.4
20260904192203 69 5 0.0 1.0 0.00 0.00 0.00 90 1022.3
20260904192103 69 5 0.0 1.0 0.00 0.00 0.00 90 1022.4
20260904192024 69 5 0.0 1.0 0.00 0.00 0.00 90 1022.3
20260904191903 69 5 0.0 1.0 0.00 0.00 0.00 90 1022.4
20260904191804 69 5 0.0 1.0 0.00 0.00 0.00 90 1022.4
20260904191703 69 5 0.0 1.0 0.00 0.00 0.00 90 1022.2
20260904191624 69 5 0.0 1.0 0.00 0.00 0.00 90 1022.4
20260904191524 69 5 0.0 1.0 0.00 0.00 0.00 90 1022.3
20260904191403 69 5 0.0 1.0 0.00 0.00 0.00 90 1022.5
20260904191304 69 5 0.0 1.0 0.00 0.00 0.00 89 1022.4
20260904191224 69 5 0.0 1.0 0.00 0.00 0.00 89 1022.3
20260904191103 69 5 0.0 1.0 0.00 0.00 0.00 89 1022.4
20260904191024 69 5 0.0 1.0 0.00 0.00 0.00 89 1022.3
20260904190924 69 359 0.0 1.0 0.00 0.00 0.00 89 1022.3
20260904190804 70 355 0.0 1.0 0.00 0.00 0.00 89 1022.3
20260904190703 70 350 0.0 2.0 0.00 0.00 0.00 89 1022.2
20260904190603 70 350 0.0 2.0 0.00 0.00 0.00 88 1022.2
20260904190504 70 328 1.0 3.0 0.00 0.00 0.00 88 1022.2
20260904190403 70 331 1.0 3.0 0.00 0.00 0.00 88 1022.2
20260904190324 70 333 1.0 3.0 0.00 0.00 0.00 88 1022.1
20260904190203 70 333 1.0 3.0 0.00 0.00 0.00 88 1022.2
20260904190003 70 330 1.0 3.0 0.00 0.00 0.00 88 1022.2
20260904185903 70 330 1.0 3.0 0.00 0.00 0.00 88 1022.4
20260904185803 70 328 1.0 3.0 0.00 0.00 0.00 88 1022.3
20260904185703 70 328 1.0 3.0 0.00 0.00 0.00 87 1022.5
20260904185603 70 329 1.0 3.0 0.00 0.00 0.00 87 1022.4
20260904185504 70 340 1.0 2.0 0.00 0.00 0.00 87 1022.3
20260904185403 70 341 1.0 2.0 0.00 0.00 0.00 87 1022.5
20260904185306 70 341 1.0 2.0 0.00 0.00 0.00 87 1022.5
20260904185203 70 339 1.0 2.0 0.00 0.00 0.00 87 1022.4
20260904185103 71 345 1.0 2.0 0.00 0.00 0.00 87 1022.6
20260904185024 71 345 1.0 2.0 0.00 0.00 0.00 87 1022.5
20260904184903 71 346 1.0 2.0 0.00 0.00 0.00 87 1022.4
20260904184803 71 346 0.0 2.0 0.00 0.00 0.00 87 1022.4
20260904184703 71 348 0.0 2.0 0.00 0.00 0.00 86 1022.4
20260904184603 71 346 0.0 2.0 0.00 0.00 0.00 86 1022.4
20260904184524 71 347 1.0 2.0 0.00 0.00 0.00 86 1022.3
20260904184424 71 346 1.0 2.0 0.00 0.00 0.00 86 1022.5
20260904184303 71 346 1.0 2.0 0.00 0.00 0.00 86 1022.5
20260904184203 71 346 1.0 2.0 0.00 0.00 0.00 86 1022.3
20260904184103 71 351 1.0 1.0 0.00 0.00 0.00 86 1022.4
20260904184024 71 351 0.0 1.0 0.00 0.00 0.00 86 1022.4
20260904183903 71 352 0.0 1.0 0.00 0.00 0.00 86 1022.4
20260904183824 71 352 0.0 1.0 0.00 0.00 0.00 86 1022.2
20260904183703 71 353 1.0 1.0 0.00 0.00 0.00 86 1022.3
20260904183603 71 355 1.0 1.0 0.00 0.00 0.00 86 1022.4
20260904183503 71 358 1.0 2.0 0.00 0.00 0.00 86 1022.2
20260904183403 71 2 1.0 2.0 0.00 0.00 0.00 86 1022.3
20260904183303 71 4 1.0 2.0 0.00 0.00 0.00 86 1022.3
20260904183203 71 6 1.0 2.0 0.00 0.00 0.00 86 1022.2
20260904183124 71 8 1.0 2.0 0.00 0.00 0.00 86 1022.4
20260904183003 71 8 1.0 2.0 0.00 0.00 0.00 86 1022.1
20260904182904 71 8 1.0 2.0 0.00 0.00 0.00 86 1022.2
20260904182803 71 9 1.0 2.0 0.00 0.00 0.00 86 1022.2
20260904182703 71 9 1.0 2.0 0.00 0.00 0.00 86 1022.1
20260904182603 71 9 2.0 2.0 0.00 0.00 0.00 86 1022.1
20260904182503 71 8 2.0 2.0 0.00 0.00 0.00 86 1022.2
20260904182424 71 8 2.0 2.0 0.00 0.00 0.00 86 1022.2
20260904182306 71 8 2.0 2.0 0.00 0.00 0.00 86 1022.0
20260904182203 71 7 1.0 2.0 0.00 0.00 0.00 86 1022.0
20260904182103 71 6 1.0 2.0 0.00 0.00 0.00 86 1022.0
20260904182003 71 5 1.0 2.0 0.00 0.00 0.00 86 1022.0
20260904181903 71 4 1.0 2.0 0.00 0.00 0.00 86 1022.0
20260904181803 71 3 1.0 2.0 0.00 0.00 0.00 86 1022.1
20260904181703 71 2 1.0 2.0 0.00 0.00 0.00 86 1022.0
20260904181603 72 1 1.0 2.0 0.00 0.00 0.00 85 1021.9
20260904181524 72 1 1.0 2.0 0.00 0.00 0.00 85 1022.0
20260904181424 72 2 0.0 1.0 0.00 0.00 0.00 85 1021.9
20260904181303 72 1 0.0 1.0 0.00 0.00 0.00 85 1022.0
20260904181203 72 2 0.0 1.0 0.00 0.00 0.00 85 1021.9
20260904181103 72 1 0.0 1.0 0.00 0.00 0.00 85 1022.0
20260904181003 72 359 0.0 1.0 0.00 0.00 0.00 85 1022.0
20260904180903 72 358 0.0 1.0 0.00 0.00 0.00 85 1022.0
20260904180803 72 358 1.0 1.0 0.00 0.00 0.00 85 1022.2
20260904180703 72 358 1.0 1.0 0.00 0.00 0.00 84 1022.0
20260904180603 72 357 1.0 1.0 0.00 0.00 0.00 84 1022.0
20260904180503 72 352 1.0 2.0 0.00 0.00 0.00 84 1022.0
20260904180424 72 352 1.0 2.0 0.00 0.00 0.00 84 1022.0
20260904180303 72 345 1.0 2.0 0.00 0.00 0.00 84 1022.0
20260904180203 72 340 1.0 2.0 0.00 0.00 0.00 84 1021.9
20260904180103 72 341 1.0 2.0 0.00 0.00 0.00 84 1022.0
20260904180003 73 341 1.0 2.0 0.00 0.00 0.00 84 1021.7
20260904175903 73 342 1.0 2.0 0.00 0.00 0.00 83 1022.0
20260904175803 73 340 1.0 3.0 0.00 0.00 0.00 83 1022.0
20260904175703 73 340 2.0 3.0 0.00 0.00 0.00 83 1021.8
20260904175603 73 340 2.0 3.0 0.00 0.00 0.00 83 1022.0
20260904175503 73 333 2.0 4.0 0.00 0.00 0.00 82 1021.9
20260904175424 73 333 2.0 4.0 0.00 0.00 0.00 82 1021.7
20260904175305 73 331 2.0 4.0 0.00 0.00 0.00 82 1021.9
20260904175224 73 330 2.0 4.0 0.00 0.00 0.00 82 1021.9
20260904175104 73 331 2.0 4.0 0.00 0.00 0.00 82 1021.9
20260904175003 74 330 2.0 4.0 0.00 0.00 0.00 82 1021.9
20260904174903 74 327 2.0 4.0 0.00 0.00 0.00 81 1021.9
20260904174803 74 327 2.0 4.0 0.00 0.00 0.00 81 1021.9
20260904174703 74 328 2.0 4.0 0.00 0.00 0.00 81 1022.0
20260904174603 74 328 1.0 4.0 0.00 0.00 0.00 81 1022.0
20260904174503 74 337 1.0 3.0 0.00 0.00 0.00 81 1021.9
20260904174403 74 338 1.0 3.0 0.00 0.00 0.00 81 1022.0
20260904174303 74 340 1.0 3.0 0.00 0.00 0.00 80 1021.9
20260904174203 74 353 1.0 3.0 0.00 0.00 0.00 81 1022.0
20260904174103 74 350 1.0 3.0 0.00 0.00 0.00 81 1022.0
20260904174024 74 351 1.0 3.0 0.00 0.00 0.00 80 1021.9
20260904173903 74 338 1.0 3.0 0.00 0.00 0.00 80 1021.7
20260904173803 74 328 1.0 3.0 0.00 0.00 0.00 80 1021.8
20260904173703 74 328 2.0 3.0 0.00 0.00 0.00 80 1021.8
20260904173603 74 328 2.0 3.0 0.00 0.00 0.00 80 1021.8
20260904173503 74 327 2.0 3.0 0.00 0.00 0.00 80 1021.8
20260904173424 74 325 2.0 3.0 0.00 0.00 0.00 80 1021.7
20260904173324 74 326 2.0 4.0 0.00 0.00 0.00 80 1021.7
20260904173224 74 321 2.0 4.0 0.00 0.00 0.00 80 1021.7
20260904173103 74 313 2.0 4.0 0.00 0.00 0.00 80 1021.8
20260904173003 74 308 2.0 4.0 0.00 0.00 0.00 80 1021.7
20260904172903 74 315 2.0 4.0 0.00 0.00 0.00 80 1021.6
20260904172803 74 318 2.0 4.0 0.00 0.00 0.00 81 1021.7
20260904172724 74 319 3.0 6.0 0.00 0.00 0.00 80 1021.6
20260904172604 74 318 3.0 6.0 0.00 0.00 0.00 80 1021.7
20260904172503 74 318 3.0 6.0 0.00 0.00 0.00 81 1021.6
20260904172403 74 313 3.0 6.0 0.00 0.00 0.00 80 1021.8
20260904172305 74 313 3.0 6.0 0.00 0.00 0.00 80 1021.6
20260904172203 74 307 3.0 6.0 0.00 0.00 0.00 80 1021.7
20260904172124 74 306 3.0 6.0 0.00 0.00 0.00 80 1021.6
20260904172003 74 310 3.0 6.0 0.00 0.00 0.00 81 1021.5
20260904171903 74 306 3.0 6.0 0.00 0.00 0.00 80 1021.5
20260904171803 74 304 3.0 6.0 0.00 0.00 0.00 80 1021.5
20260904171703 74 300 3.0 4.0 0.00 0.00 0.00 80 1021.5
20260904171603 74 298 3.0 4.0 0.00 0.00 0.00 80 1021.5
20260904171503 74 296 3.0 4.0 0.00 0.00 0.00 80 1021.4
20260904171403 74 293 3.0 4.0 0.00 0.00 0.00 80 1021.3
20260904171303 74 293 3.0 6.0 0.00 0.00 0.00 80 1021.5
20260904171203 74 296 3.0 6.0 0.00 0.00 0.00 79 1021.4
20260904171103 74 290 3.0 6.0 0.00 0.00 0.00 80 1021.4
20260904171003 74 295 3.0 6.0 0.00 0.00 0.00 80 1021.5
20260904170903 74 298 3.0 6.0 0.00 0.00 0.00 80 1021.5
20260904170824 74 299 3.0 6.0 0.00 0.00 0.00 80 1021.4
20260904170703 74 304 3.0 6.0 0.00 0.00 0.00 80 1021.4
20260904170603 74 306 2.0 6.0 0.00 0.00 0.00 80 1021.5
20260904170503 74 300 3.0 6.0 0.00 0.00 0.00 80 1021.5
20260904170424 74 306 2.0 6.0 0.00 0.00 0.00 80 1021.4
20260904170303 74 310 2.0 4.0 0.00 0.00 0.00 80 1021.3
20260904170224 74 308 2.0 4.0 0.00 0.00 0.00 80 1021.4
20260904170124 74 315 2.0 4.0 0.00 0.00 0.00 81 1021.3
20260904170003 74 306 2.0 4.0 0.00 0.00 0.00 81 1021.4
20260904165903 74 305 2.0 4.0 0.00 0.00 0.00 81 1021.5
20260904165803 74 303 2.0 4.0 0.00 0.00 0.00 81 1021.5
20260904165703 74 296 2.0 4.0 0.00 0.00 0.00 80 1021.4
20260904165603 74 295 2.0 4.0 0.00 0.00 0.00 80 1021.3
20260904165503 74 299 2.0 4.0 0.00 0.00 0.00 81 1021.3
20260904165403 74 294 2.0 4.0 0.00 0.00 0.00 80 1021.4
20260904165305 74 296 2.0 4.0 0.00 0.00 0.00 81 1021.3
20260904165203 74 298 2.0 4.0 0.00 0.00 0.00 81 1021.3
20260904165103 74 298 2.0 4.0 0.00 0.00 0.00 81 1021.4
20260904165003 74 300 2.0 4.0 0.00 0.00 0.00 81 1021.4
20260904164904 74 305 2.0 3.0 0.00 0.00 0.00 81 1021.2
20260904164803 74 300 2.0 3.0 0.00 0.00 0.00 81 1021.2
20260904164703 74 305 2.0 3.0 0.00 0.00 0.00 81 1021.3
20260904164603 74 304 2.0 3.0 0.00 0.00 0.00 81 1021.1
20260904164524 74 309 2.0 3.0 0.00 0.00 0.00 82 1021.0
20260904164403 74 312 2.0 3.0 0.00 0.00 0.00 82 1021.1
20260904164324 74 312 2.0 3.0 0.00 0.00 0.00 81 1021.2
20260904164203 74 312 2.0 3.0 0.00 0.00 0.00 81 1021.1
20260904164124 75 305 2.0 3.0 0.00 0.00 0.00 81 1021.2
20260904164003 75 308 2.0 3.0 0.00 0.00 0.00 81 1021.2
20260904163903 75 309 2.0 3.0 0.00 0.00 0.00 80 1021.3
20260904163803 75 312 2.0 3.0 0.00 0.00 0.00 80 1021.4
20260904163703 75 317 2.0 3.0 0.00 0.00 0.00 80 1021.3
20260904163603 75 309 2.0 4.0 0.00 0.00 0.00 80 1021.3
20260904163524 75 307 2.0 4.0 0.00 0.00 0.00 80 1021.2
20260904163424 75 303 2.0 6.0 0.00 0.00 0.00 80 1021.2
20260904163303 75 303 2.0 6.0 0.00 0.00 0.00 80 1021.1
20260904163203 76 306 2.0 6.0 0.00 0.00 0.00 79 1021.1
20260904163124 76 307 2.0 6.0 0.00 0.00 0.00 79 1021.0
20260904163003 76 307 2.0 6.0 0.00 0.00 0.00 79 1021.0
20260904162903 76 301 2.0 7.0 0.00 0.00 0.00 79 1021.0
20260904162803 76 298 3.0 7.0 0.00 0.00 0.00 78 1021.1
20260904162703 76 297 3.0 7.0 0.00 0.00 0.00 78 1021.0
20260904162603 76 297 3.0 7.0 0.00 0.00 0.00 77 1021.1
20260904162503 76 300 3.0 7.0 0.00 0.00 0.00 77 1021.1
20260904162403 76 300 3.0 7.0 0.00 0.00 0.00 77 1021.1
20260904162306 76 305 2.0 7.0 0.00 0.00 0.00 78 1021.1
20260904162203 76 312 2.0 7.0 0.00 0.00 0.00 79 1021.2
20260904162103 76 308 2.0 7.0 0.00 0.00 0.00 78 1021.1
20260904162003 76 312 2.0 7.0 0.00 0.00 0.00 78 1021.2
20260904161903 76 313 2.0 7.0 0.00 0.00 0.00 77 1021.3
20260904161803 76 320 2.0 4.0 0.00 0.00 0.00 77 1021.2
20260904161703 76 319 2.0 4.0 0.00 0.00 0.00 78 1021.2
20260904161603 76 320 2.0 4.0 0.00 0.00 0.00 77 1021.2
20260904161503 76 312 2.0 4.0 0.00 0.00 0.00 79 1021.3
20260904161403 76 322 2.0 4.0 0.00 0.00 0.00 79 1021.2
20260904161303 76 310 2.0 4.0 0.00 0.00 0.00 79 1021.1
20260904161203 76 305 2.0 4.0 0.00 0.00 0.00 79 1021.3
20260904161103 75 302 2.0 4.0 0.00 0.00 0.00 80 1021.4
20260904161003 75 303 2.0 4.0 0.00 0.00 0.00 80 1021.2
20260904160903 75 299 3.0 4.0 0.00 0.00 0.00 78 1021.5
20260904160803 75 301 2.0 4.0 0.00 0.00 0.00 79 1021.5
20260904160703 75 293 3.0 6.0 0.00 0.00 0.00 79 1021.4
20260904160603 75 300 3.0 6.0 0.00 0.00 0.00 79 1021.6
20260904160503 75 307 3.0 6.0 0.00 0.00 0.00 80 1021.6
20260904160403 74 303 2.0 6.0 0.00 0.00 0.00 81 1021.5
20260904160303 74 300 3.0 6.0 0.00 0.00 0.00 81 1021.5
20260904160203 74 309 2.0 6.0 0.00 0.00 0.00 82 1021.7
20260904160103 74 309 2.0 6.0 0.00 0.00 0.00 82 1021.4
20260904160024 74 307 2.0 6.0 0.00 0.00 0.00 82 1021.7
20260904155903 74 311 2.0 6.0 0.00 0.00 0.00 82 1021.6
20260904155803 74 323 2.0 6.0 0.00 0.00 0.00 82 1021.9
20260904155724 74 334 2.0 3.0 0.00 0.00 0.00 82 1021.6
20260904155624 74 336 2.0 3.0 0.00 0.00 0.00 82 1021.8
20260904155503 74 338 2.0 3.0 0.00 0.00 0.00 82 1021.8
20260904155403 74 336 2.0 3.0 0.00 0.00 0.00 82 1021.6
20260904155324 74 346 2.0 3.0 0.00 0.00 0.00 82 1021.8
20260904155203 74 346 2.0 3.0 0.00 0.00 0.00 82 1021.8
20260904155103 74 351 1.0 3.0 0.00 0.00 0.00 83 1021.6
20260904155003 73 352 2.0 3.0 0.00 0.00 0.00 83 1021.8
20260904154903 73 352 2.0 7.0 0.00 0.00 0.00 83 1021.7
20260904154803 73 352 2.0 7.0 0.00 0.00 0.00 83 1021.9
20260904154703 73 352 2.0 7.0 0.00 0.00 0.00 83 1021.8
20260904154603 73 353 2.0 7.0 0.00 0.00 0.00 83 1021.9
20260904154504 73 353 2.0 7.0 0.00 0.00 0.00 83 1021.8
20260904154404 73 353 3.0 7.0 0.00 0.00 0.00 83 1021.9
20260904154303 73 354 3.0 7.0 0.00 0.00 0.00 83 1021.9
20260904154203 73 353 2.0 7.0 0.00 0.00 0.00 83 1021.9
20260904154103 73 353 2.0 7.0 0.00 0.00 0.00 84 1021.9
20260904154003 73 352 2.0 7.0 0.00 0.00 0.00 83 1021.9
20260904153903 73 352 2.0 7.0 0.00 0.00 0.00 83 1022.0
20260904153803 73 354 2.0 6.0 0.00 0.00 0.00 83 1022.0
20260904153703 74 356 2.0 6.0 0.00 0.00 0.00 82 1022.0
20260904153603 74 356 2.0 6.0 0.00 0.00 0.00 82 1022.0
20260904153503 74 355 2.0 3.0 0.00 0.00 0.00 83 1022.0
20260904153403 74 356 2.0 8.0 0.00 0.00 0.00 82 1022.0
20260904153303 73 353 2.0 8.0 0.00 0.00 0.00 83 1022.0
20260904153203 73 353 2.0 8.0 0.00 0.00 0.00 83 1022.1
20260904153103 73 351 2.0 8.0 0.00 0.00 0.00 83 1022.2
20260904153003 72 351 3.0 8.0 0.00 0.00 0.00 84 1022.0
20260904152924 72 350 3.0 8.0 0.00 0.00 0.00 84 1022.1
20260904152803 72 350 3.0 8.0 0.00 0.00 0.00 84 1022.2
20260904152703 72 346 3.0 8.0 0.00 0.00 0.00 84 1022.1
20260904152603 72 346 3.0 8.0 0.00 0.00 0.00 85 1022.1
20260904152503 72 347 3.0 8.0 0.00 0.00 0.00 84 1022.3
20260904152403 72 347 3.0 8.0 0.00 0.00 0.00 84 1022.3
20260904152306 72 345 3.0 6.0 0.00 0.00 0.00 84 1022.2
20260904152203 72 346 3.0 6.0 0.00 0.00 0.00 84 1022.0
20260904152103 72 346 3.0 6.0 0.00 0.00 0.00 84 1022.2
20260904152003 72 346 2.0 6.0 0.00 0.00 0.00 85 1022.3
20260904151902 72 337 3.0 6.0 0.00 0.00 0.00 84 1022.2
20260904151803 72 334 3.0 6.0 0.00 0.00 0.00 84 1022.3
20260904151703 72 336 3.0 6.0 0.00 0.00 0.00 84 1022.4
20260904151603 72 333 2.0 6.0 0.00 0.00 0.00 84 1022.5
20260904151502 73 331 2.0 4.0 0.00 0.00 0.00 84 1022.3
20260904151403 73 330 2.0 4.0 0.00 0.00 0.00 84 1022.4
20260904151303 73 329 2.0 4.0 0.00 0.00 0.00 84 1022.4
20260904151203 73 328 2.0 4.0 0.00 0.00 0.00 83 1022.4
20260904151103 73 330 3.0 4.0 0.00 0.00 0.00 84 1022.6
20260904151003 73 333 3.0 4.0 0.00 0.00 0.00 83 1022.6
20260904150903 73 342 2.0 4.0 0.00 0.00 0.00 83 1022.6
20260904150802 73 343 2.0 4.0 0.00 0.00 0.00 83 1022.4
20260904150723 73 347 2.0 4.0 0.00 0.00 0.00 82 1022.4
20260904150603 73 349 3.0 7.0 0.00 0.00 0.00 83 1022.5
20260904150502 73 351 3.0 7.0 0.00 0.00 0.00 83 1022.4
20260904150403 73 354 3.0 7.0 0.00 0.00 0.00 83 1022.3
20260904150324 73 348 3.0 7.0 0.00 0.00 0.00 83 1022.2
20260904150202 73 346 3.0 7.0 0.00 0.00 0.00 82 1022.2
20260904150003 73 347 3.0 7.0 0.00 0.00 0.00 82 1022.4
20260904145903 73 346 3.0 7.0 0.00 0.00 0.00 83 1022.4
20260904145824 73 350 3.0 7.0 0.00 0.00 0.00 83 1022.7
20260904145702 74 349 3.0 7.0 0.00 0.00 0.00 82 1022.6
20260904145603 74 348 3.0 7.0 0.00 0.00 0.00 82 1022.5
20260904145502 74 349 3.0 7.0 0.00 0.00 0.00 82 1022.6
20260904145403 74 348 3.0 7.0 0.00 0.00 0.00 82 1022.5
20260904145305 73 352 3.0 8.0 0.00 0.00 0.00 83 1022.7
20260904145203 73 354 4.0 8.0 0.00 0.00 0.00 83 1022.8
20260904145103 73 354 4.0 8.0 0.00 0.00 0.00 83 1022.7
20260904145003 73 353 3.0 8.0 0.00 0.00 0.00 83 1022.4
20260904144903 73 353 3.0 8.0 0.00 0.00 0.00 83 1022.4
20260904144803 73 352 3.0 8.0 0.00 0.00 0.00 83 1022.6
20260904144703 73 352 3.0 8.0 0.00 0.00 0.00 82 1022.5
20260904144603 73 355 3.0 8.0 0.00 0.00 0.00 82 1022.6
20260904144502 74 352 3.0 8.0 0.00 0.00 0.00 82 1022.6
20260904144402 74 351 3.0 8.0 0.00 0.00 0.00 81 1022.7
20260904144303 74 345 3.0 8.0 0.00 0.00 0.00 81 1022.6
20260904144224 74 345 3.0 6.0 0.00 0.00 0.00 81 1022.6
20260904144124 74 344 3.0 6.0 0.00 0.00 0.00 82 1022.8
20260904144003 74 344 3.0 6.0 0.00 0.00 0.00 82 1022.7
20260904143902 74 338 3.0 6.0 0.00 0.00 0.00 82 1022.8
20260904143803 74 340 3.0 6.0 0.00 0.00 0.00 82 1022.7
20260904143703 74 338 3.0 7.0 0.00 0.00 0.00 82 1022.9
20260904143603 74 337 3.0 7.0 0.00 0.00 0.00 82 1022.8
20260904143503 74 338 4.0 7.0 0.00 0.00 0.00 81 1022.7
20260904143402 74 341 3.0 7.0 0.00 0.00 0.00 81 1022.9
20260904143303 74 351 3.0 7.0 0.00 0.00 0.00 82 1022.8
20260904143224 74 350 3.0 7.0 0.00 0.00 0.00 82 1022.7
20260904143103 74 350 3.0 7.0 0.00 0.00 0.00 82 1022.8
20260904143003 74 350 4.0 7.0 0.00 0.00 0.00 81 1022.8
20260904142924 75 353 4.0 8.0 0.00 0.00 0.00 81 1022.8
20260904142803 75 351 4.0 8.0 0.00 0.00 0.00 81 1022.8
20260904142703 75 354 4.0 8.0 0.00 0.00 0.00 81 1022.7
20260904142603 75 356 3.0 8.0 0.00 0.00 0.00 80 1022.9
20260904142503 74 354 3.0 8.0 0.00 0.00 0.00 81 1023.0
20260904142403 74 354 3.0 8.0 0.00 0.00 0.00 82 1022.9
20260904142306 74 353 3.0 8.0 0.00 0.00 0.00 81 1022.9
20260904142203 74 350 4.0 8.0 0.00 0.00 0.00 81 1022.9
20260904142124 74 351 4.0 8.0 0.00 0.00 0.00 81 1022.9
20260904142003 75 351 4.0 8.0 0.00 0.00 0.00 81 1022.8
20260904141903 75 351 4.0 8.0 0.00 0.00 0.00 81 1022.9
20260904141803 74 351 4.0 8.0 0.00 0.00 0.00 82 1023.0
20260904141702 74 348 4.0 8.0 0.00 0.00 0.00 83 1023.0
20260904141603 74 347 4.0 8.0 0.00 0.00 0.00 82 1023.1
20260904141503 73 347 4.0 8.0 0.00 0.00 0.00 83 1023.0
20260904141403 73 348 4.0 8.0 0.00 0.00 0.00 83 1023.1
20260904141303 73 348 4.0 8.0 0.00 0.00 0.00 82 1023.2
20260904141203 73 349 4.0 8.0 0.00 0.00 0.00 82 1023.0
20260904141103 73 350 4.0 8.0 0.00 0.00 0.00 84 1022.9
20260904141003 73 352 4.0 8.0 0.00 0.00 0.00 83 1023.2
20260904140903 73 350 4.0 8.0 0.00 0.00 0.00 83 1023.1
20260904140803 73 350 4.0 8.0 0.00 0.00 0.00 83 1023.0
20260904140703 74 350 4.0 8.0 0.00 0.00 0.00 83 1023.0
20260904140624 74 351 4.0 8.0 0.00 0.00 0.00 83 1022.9
20260904140503 74 351 3.0 7.0 0.00 0.00 0.00 82 1023.0
20260904140403 74 350 3.0 7.0 0.00 0.00 0.00 83 1022.9
20260904140303 74 352 4.0 7.0 0.00 0.00 0.00 83 1023.0
20260904140203 73 356 4.0 7.0 0.00 0.00 0.00 83 1022.9
20260904140003 73 354 4.0 7.0 0.00 0.00 0.00 84 1023.0
20260904135924 73 354 4.0 8.0 0.00 0.00 0.00 83 1023.1
20260904135803 73 357 4.0 8.0 0.00 0.00 0.00 83 1023.1
20260904135703 73 359 4.0 8.0 0.00 0.00 0.00 84 1022.9
20260904135603 73 360 5.0 8.0 0.00 0.00 0.00 83 1023.2
20260904135503 73 2 5.0 8.0 0.00 0.00 0.00 83 1023.2
20260904135403 73 359 5.0 8.0 0.00 0.00 0.00 83 1023.2
20260904135324 73 359 4.0 8.0 0.00 0.00 0.00 84 1023.1
20260904135224 73 360 4.0 8.0 0.00 0.00 0.00 84 1022.9
20260904135103 73 358 4.0 8.0 0.00 0.00 0.00 84 1023.1
20260904135003 73 354 4.0 8.0 0.00 0.00 0.00 83 1023.2
20260904134903 73 355 4.0 8.0 0.00 0.00 0.00 83 1023.2
20260904134803 73 355 4.0 7.0 0.00 0.00 0.00 83 1023.2
20260904134702 74 354 3.0 7.0 0.00 0.00 0.00 83 1023.0
20260904134603 74 350 3.0 7.0 0.00 0.00 0.00 83 1023.1
20260904134503 74 352 3.0 7.0 0.00 0.00 0.00 83 1023.2
20260904134403 74 352 3.0 7.0 0.00 0.00 0.00 83 1023.2
20260904134303 74 352 3.0 7.0 0.00 0.00 0.00 83 1023.2
20260904134203 74 353 3.0 7.0 0.00 0.00 0.00 82 1023.2
20260904134103 75 358 3.0 7.0 0.00 0.00 0.00 81 1023.2
20260904134003 75 358 3.0 7.0 0.00 0.00 0.00 81 1023.2
20260904133903 75 360 3.0 7.0 0.00 0.00 0.00 83 1023.1
20260904133803 74 356 3.0 7.0 0.00 0.00 0.00 84 1023.1
20260904133703 74 355 3.0 7.0 0.00 0.00 0.00 83 1023.3
20260904133624 74 355 3.0 7.0 0.00 0.00 0.00 84 1023.1
20260904133503 74 356 3.0 7.0 0.00 0.00 0.00 84 1023.1
20260904133403 74 356 3.0 7.0 0.00 0.00 0.00 84 1023.1
20260904133303 74 354 4.0 7.0 0.00 0.00 0.00 83 1023.1
20260904133224 74 354 4.0 7.0 0.00 0.00 0.00 83 1023.1
20260904133103 74 351 4.0 7.0 0.00 0.00 0.00 83 1023.1
20260904133024 74 348 3.0 7.0 0.00 0.00 0.00 84 1023.2
20260904132903 73 348 3.0 7.0 0.00 0.00 0.00 85 1023.1
20260904132803 73 349 3.0 7.0 0.00 0.00 0.00 85 1023.2
20260904132703 73 347 3.0 7.0 0.00 0.00 0.00 85 1023.1
20260904132603 73 347 3.0 7.0 0.00 0.00 0.00 85 1023.2
20260904132502 73 346 4.0 7.0 0.00 0.00 0.00 84 1022.9
20260904132403 73 346 4.0 8.0 0.00 0.00 0.00 85 1023.2
20260904132324 73 346 4.0 8.0 0.00 0.00 0.00 84 1023.2
20260904132203 73 347 4.0 8.0 0.00 0.00 0.00 84 1023.1
20260904132103 73 347 4.0 8.0 0.00 0.00 0.00 85 1023.2
20260904132003 73 347 4.0 8.0 0.00 0.00 0.00 85 1023.1
20260904131903 73 349 4.0 8.0 0.00 0.00 0.00 84 1023.1
20260904131803 73 350 4.0 8.0 0.00 0.00 0.00 84 1023.1
20260904131703 74 351 4.0 8.0 0.00 0.00 0.00 83 1023.1
20260904131603 74 351 3.0 8.0 0.00 0.00 0.00 84 1023.0
20260904131503 74 350 3.0 8.0 0.00 0.00 0.00 83 1022.9
20260904131403 74 350 3.0 7.0 0.00 0.00 0.00 83 1023.1
20260904131303 74 348 3.0 7.0 0.00 0.00 0.00 82 1023.0
20260904131203 75 340 3.0 6.0 0.00 0.00 0.00 82 1023.0
20260904131103 76 341 3.0 6.0 0.00 0.00 0.00 81 1022.9
20260904131003 76 340 2.0 6.0 0.00 0.00 0.00 80 1022.9
20260904130903 76 340 2.0 6.0 0.00 0.00 0.00 80 1022.9
20260904130824 76 335 2.0 4.0 0.00 0.00 0.00 81 1022.9
20260904130724 76 340 2.0 4.0 0.00 0.00 0.00 81 1023.1
20260904130603 76 340 2.0 4.0 0.00 0.00 0.00 81 1023.3
20260904130503 76 341 2.0 4.0 0.00 0.00 0.00 81 1023.2
20260904130403 75 340 2.0 4.0 0.00 0.00 0.00 81 1023.1
20260904130303 75 343 2.0 4.0 0.00 0.00 0.00 81 1023.3
20260904130203 75 351 2.0 4.0 0.00 0.00 0.00 81 1023.2
20260904130003 75 352 2.0 4.0 0.00 0.00 0.00 81 1023.1
20260904125903 75 346 3.0 4.0 0.00 0.00 0.00 81 1023.1
20260904125803 75 345 3.0 4.0 0.00 0.00 0.00 81 1022.9
20260904125703 75 340 3.0 4.0 0.00 0.00 0.00 81 1023.2
20260904125624 75 338 2.0 4.0 0.00 0.00 0.00 82 1023.0
20260904125503 74 339 2.0 4.0 0.00 0.00 0.00 82 1022.9
20260904125403 75 340 2.0 4.0 0.00 0.00 0.00 83 1022.9
20260904125305 75 341 2.0 4.0 0.00 0.00 0.00 82 1023.0
20260904125203 75 344 2.0 4.0 0.00 0.00 0.00 81 1022.8
20260904125103 75 344 2.0 4.0 0.00 0.00 0.00 82 1022.9
20260904125003 75 341 2.0 4.0 0.00 0.00 0.00 82 1022.8
20260904124903 75 341 3.0 8.0 0.00 0.00 0.00 81 1022.8
20260904124803 74 346 3.0 8.0 0.00 0.00 0.00 83 1022.8
20260904124703 74 351 3.0 8.0 0.00 0.00 0.00 83 1022.8
20260904124603 74 350 3.0 8.0 0.00 0.00 0.00 83 1022.9
20260904124503 74 347 3.0 8.0 0.00 0.00 0.00 82 1022.8
20260904124424 74 343 3.0 8.0 0.00 0.00 0.00 82 1022.9
20260904124303 74 340 3.0 8.0 0.00 0.00 0.00 82 1022.9
20260904124224 75 339 3.0 8.0 0.00 0.00 0.00 83 1022.7
20260904124103 75 335 3.0 8.0 0.00 0.00 0.00 82 1022.7
20260904124003 76 335 2.0 8.0 0.00 0.00 0.00 80 1022.8
20260904123903 76 335 2.0 4.0 0.00 0.00 0.00 79 1022.7
20260904123803 76 334 2.0 4.0 0.00 0.00 0.00 81 1022.6
20260904123703 76 331 2.0 4.0 0.00 0.00 0.00 80 1022.7
20260904123603 76 330 2.0 4.0 0.00 0.00 0.00 80 1022.8
20260904123503 76 333 2.0 4.0 0.00 0.00 0.00 79 1022.6
20260904123403 76 336 2.0 4.0 0.00 0.00 0.00 78 1022.8
20260904123303 76 341 2.0 4.0 0.00 0.00 0.00 80 1022.6
20260904123203 76 343 2.0 4.0 0.00 0.00 0.00 81 1022.6
20260904123103 75 349 2.0 4.0 0.00 0.00 0.00 83 1022.9
20260904123003 75 349 2.0 6.0 0.00 0.00 0.00 82 1022.6
20260904122903 75 349 2.0 6.0 0.00 0.00 0.00 81 1022.6
20260904122803 74 349 2.0 6.0 0.00 0.00 0.00 81 1022.7
20260904122703 74 352 2.0 6.0 0.00 0.00 0.00 82 1022.6
20260904122603 74 353 2.0 6.0 0.00 0.00 0.00 82 1022.3
20260904122503 74 353 2.0 6.0 0.00 0.00 0.00 83 1022.3
20260904122403 74 353 2.0 6.0 0.00 0.00 0.00 83 1022.3
20260904122306 74 352 2.0 6.0 0.00 0.00 0.00 82 1022.7
20260904122203 74 353 2.0 6.0 0.00 0.00 0.00 82 1022.7
20260904122103 75 352 2.0 6.0 0.00 0.00 0.00 83 1022.4
20260904122003 75 352 2.0 6.0 0.00 0.00 0.00 83 1022.4
20260904121903 74 352 2.0 3.0 0.00 0.00 0.00 83 1022.6
20260904121803 74 354 2.0 3.0 0.00 0.00 0.00 83 1022.6
20260904121703 74 354 2.0 3.0 0.00 0.00 0.00 84 1022.5
20260904121603 74 352 2.0 3.0 0.00 0.00 0.00 83 1022.7
20260904121503 74 354 2.0 3.0 0.00 0.00 0.00 84 1022.9
20260904121403 74 354 2.0 3.0 0.00 0.00 0.00 85 1022.6
20260904121303 73 354 2.0 3.0 0.00 0.00 0.00 84 1022.7
20260904121203 74 354 2.0 3.0 0.00 0.00 0.00 84 1022.7
20260904121103 74 350 2.0 3.0 0.00 0.00 0.00 84 1022.8
20260904121003 74 352 2.0 3.0 0.00 0.00 0.00 84 1022.8
20260904120903 74 355 2.0 3.0 0.00 0.00 0.00 86 1022.7
20260904120803 73 352 2.0 3.0 0.00 0.00 0.00 86 1023.0
20260904120703 73 358 2.0 3.0 0.00 0.00 0.00 85 1022.9
20260904120603 73 359 2.0 3.0 0.00 0.00 0.00 86 1023.0
20260904120503 73 11 2.0 3.0 0.00 0.00 0.00 87 1022.9
20260904120424 73 12 2.0 3.0 0.00 0.00 0.00 88 1022.9
20260904120303 73 24 1.0 3.0 0.00 0.00 0.00 89 1023.0
20260904120203 72 50 1.0 3.0 0.00 0.00 0.00 91 1022.9
20260904120003 72 26 1.0 3.0 0.00 0.00 0.00 92 1022.9
20260904115924 71 26 1.0 3.0 0.00 0.00 0.00 92 1022.9
20260904115803 71 52 1.0 3.0 0.00 0.00 0.00 93 1022.8
20260904115703 71 26 1.0 2.0 0.00 0.00 0.00 94 1022.7
20260904115603 71 22 0.0 2.0 0.00 0.00 0.00 96 1022.8
20260904115503 71 6 0.0 2.0 0.00 0.00 0.00 99 1022.8
20260904115403 71 7 0.0 2.0 0.00 0.00 0.00 99 1022.8
20260904115306 71 7 0.0 2.0 0.00 0.00 0.00 99 1022.9
20260904115203 70 3 1.0 2.0 0.00 0.00 0.00 99 1022.5
20260904115103 70 358 1.0 2.0 0.00 0.00 0.00 99 1022.7
20260904115003 70 360 1.0 2.0 0.00 0.00 0.00 99 1022.7
20260904114924 70 360 1.0 2.0 0.00 0.00 0.00 99 1022.5
20260904114803 69 360 1.0 2.0 0.00 0.00 0.00 99 1022.7
20260904114703 69 347 1.0 3.0 0.00 0.00 0.00 99 1022.7
20260904114603 69 347 1.0 3.0 0.00 0.00 0.00 99 1022.6
20260904114503 69 349 1.0 3.0 0.00 0.00 0.00 99 1022.7
20260904114424 68 349 1.0 3.0 0.00 0.00 0.00 99 1022.7
20260904114303 68 350 1.0 3.0 0.00 0.00 0.00 99 1022.7
20260904114203 68 350 1.0 3.0 0.00 0.00 0.00 99 1022.6
20260904114103 68 345 1.0 3.0 0.00 0.00 0.00 99 1022.7
20260904114003 68 351 1.0 3.0 0.00 0.00 0.00 99 1022.7
20260904113924 68 350 2.0 4.0 0.00 0.00 0.00 99 1022.7
20260904113803 68 350 2.0 4.0 0.00 0.00 0.00 99 1022.8
20260904113703 68 349 2.0 4.0 0.00 0.00 0.00 99 1022.6
20260904113603 68 355 2.0 4.0 0.00 0.00 0.00 99 1022.6
20260904113503 68 354 2.0 4.0 0.00 0.00 0.00 99 1022.7
20260904113403 67 353 2.0 4.0 0.00 0.00 0.00 99 1022.5
20260904113303 67 353 2.0 4.0 0.00 0.00 0.00 99 1022.5
20260904113203 67 354 1.0 4.0 0.00 0.00 0.00 99 1022.6
20260904113103 67 359 1.0 4.0 0.00 0.00 0.00 99 1022.5
20260904113003 67 358 1.0 4.0 0.00 0.00 0.00 99 1022.3
20260904112903 67 357 1.0 4.0 0.00 0.00 0.00 99 1022.4
20260904112803 67 360 1.0 2.0 0.00 0.00 0.00 99 1022.5
20260904112703 67 360 1.0 2.0 0.00 0.00 0.00 99 1022.3
20260904112603 67 6 1.0 2.0 0.00 0.00 0.00 99 1022.5
20260904112524 67 7 1.0 2.0 0.00 0.00 0.00 99 1022.5
20260904112403 67 7 1.0 2.0 0.00 0.00 0.00 99 1022.6
20260904112305 66 6 1.0 2.0 0.00 0.00 0.00 99 1022.5
20260904112203 66 4 1.0 2.0 0.00 0.00 0.00 99 1022.5
20260904112103 66 3 1.0 2.0 0.00 0.00 0.00 99 1022.5
20260904112003 66 2 1.0 2.0 0.00 0.00 0.00 99 1022.7
20260904111924 67 1 1.0 2.0 0.00 0.00 0.00 99 1022.6
20260904111824 67 2 1.0 2.0 0.00 0.00 0.00 99 1022.5
20260904111703 67 2 1.0 1.0 0.00 0.00 0.00 99 1022.5
20260904111624 66 1 1.0 1.0 0.00 0.00 0.00 99 1022.5
20260904111503 66 1 1.0 1.0 0.00 0.00 0.00 99 1022.6
20260904111403 66 1 1.0 1.0 0.00 0.00 0.00 99 1022.5
20260904111303 66 356 1.0 2.0 0.00 0.00 0.00 99 1022.4
20260904111224 66 350 1.0 2.0 0.00 0.00 0.00 99 1022.4
20260904111124 66 344 1.0 2.0 0.00 0.00 0.00 99 1022.5
20260904111003 66 343 1.0 2.0 0.00 0.00 0.00 99 1022.3
20260904110903 66 340 1.0 2.0 0.00 0.00 0.00 99 1022.4
20260904110803 66 348 1.0 2.0 0.00 0.00 0.00 99 1022.3
20260904110703 66 352 1.0 2.0 0.00 0.00 0.00 99 1022.3
20260904110624 66 351 1.0 2.0 0.00 0.00 0.00 99 1022.2
20260904110503 65 4 1.0 2.0 0.00 0.00 0.00 99 1022.4
20260904110403 65 24 1.0 2.0 0.00 0.00 0.00 99 1022.2
20260904110303 66 36 1.0 2.0 0.00 0.00 0.00 99 1022.3
20260904110226 66 41 1.0 2.0 0.00 0.00 0.00 99 1022.5
20260904110003 66 61 1.0 3.0 0.00 0.00 0.00 99 1022.4
20260904105924 66 61 2.0 3.0 0.00 0.00 0.00 99 1022.5
20260904105824 66 62 2.0 3.0 0.00 0.00 0.00 99 1022.7
20260904105724 66 64 2.0 3.0 0.00 0.00 0.00 99 1022.7
20260904105603 66 65 2.0 3.0 0.00 0.00 0.00 99 1022.6
20260904105503 66 62 2.0 3.0 0.00 0.00 0.00 99 1022.8
20260904105403 66 60 2.0 3.0 0.00 0.00 0.00 99 1022.8
20260904105305 65 58 2.0 3.0 0.00 0.00 0.00 99 1022.7
20260904105203 66 58 2.0 3.0 0.00 0.00 0.00 99 1022.6
20260904105103 66 58 2.0 3.0 0.00 0.00 0.00 99 1022.7
20260904105003 65 55 2.0 3.0 0.00 0.00 0.00 99 1022.6
20260904104903 65 54 1.0 3.0 0.00 0.00 0.00 99 1022.5
20260904104803 65 54 1.0 3.0 0.00 0.00 0.00 99 1022.6
20260904104724 65 51 1.0 3.0 0.00 0.00 0.00 99 1022.7
20260904104603 65 46 1.0 2.0 0.00 0.00 0.00 99 1022.6
20260904104503 65 45 1.0 2.0 0.00 0.00 0.00 99 1022.8
20260904104403 65 46 1.0 2.0 0.00 0.00 0.00 99 1022.7
20260904104303 65 46 1.0 2.0 0.00 0.00 0.00 99 1022.8
20260904104224 65 45 1.0 2.0 0.00 0.00 0.00 99 1022.7
20260904104103 65 46 1.0 2.0 0.00 0.00 0.00 99 1022.7
20260904104024 65 36 1.0 2.0 0.00 0.00 0.00 99 1022.4
20260904103903 65 28 1.0 2.0 0.00 0.00 0.00 99 1022.6
20260904103803 65 29 1.0 2.0 0.00 0.00 0.00 99 1022.4
20260904103703 65 29 1.0 2.0 0.00 0.00 0.00 99 1022.5
20260904103603 65 24 1.0 2.0 0.00 0.00 0.00 99 1022.6
20260904103503 65 19 1.0 2.0 0.00 0.00 0.00 99 1022.5
20260904103403 65 18 1.0 2.0 0.00 0.00 0.00 99 1022.4
20260904103303 65 16 1.0 2.0 0.00 0.00 0.00 99 1022.6
20260904103203 65 10 1.0 2.0 0.00 0.00 0.00 99 1022.7
20260904103103 65 9 1.0 2.0 0.00 0.00 0.00 99 1022.6
20260904103003 65 13 1.0 2.0 0.00 0.00 0.00 99 1022.6
20260904102903 65 25 1.0 2.0 0.00 0.00 0.00 99 1022.6
20260904102803 65 15 1.0 2.0 0.00 0.00 0.00 99 1022.6
20260904102703 65 360 1.0 2.0 0.00 0.00 0.00 99 1022.5
20260904102603 65 356 1.0 2.0 0.00 0.00 0.00 99 1022.3
20260904102503 65 355 0.0 2.0 0.00 0.00 0.00 99 1022.3
20260904102403 65 355 0.0 2.0 0.00 0.00 0.00 99 1022.6
20260904102306 65 353 1.0 2.0 0.00 0.00 0.00 99 1022.3
20260904102203 65 355 0.0 2.0 0.00 0.00 0.00 99 1022.3
20260904102103 65 350 0.0 2.0 0.00 0.00 0.00 99 1022.5
20260904102003 65 350 0.0 2.0 0.00 0.00 0.00 99 1022.5
20260904101903 65 347 0.0 2.0 0.00 0.00 0.00 99 1022.5
20260904101803 65 347 0.0 2.0 0.00 0.00 0.00 99 1022.5
20260904101704 65 355 0.0 2.0 0.00 0.00 0.00 99 1022.3
20260904101603 65 14 0.0 1.0 0.00 0.00 0.00 99 1022.5
20260904101503 65 23 0.0 1.0 0.00 0.00 0.00 99 1022.4
20260904101403 65 31 0.0 2.0 0.00 0.00 0.00 99 1022.4
20260904101303 65 37 1.0 2.0 0.00 0.00 0.00 99 1022.5
20260904101224 65 37 1.0 2.0 0.00 0.00 0.00 99 1022.4
20260904101124 65 33 1.0 2.0 0.00 0.00 0.00 99 1022.6
20260904101003 64 35 1.0 2.0 0.00 0.00 0.00 99 1022.5
20260904100924 64 36 1.0 2.0 0.00 0.00 0.00 99 1022.5
20260904100803 64 36 1.0 2.0 0.00 0.00 0.00 99 1022.4
20260904100703 64 36 1.0 2.0 0.00 0.00 0.00 99 1022.5
20260904100603 64 35 1.0 2.0 0.00 0.00 0.00 99 1022.5
20260904100503 64 35 1.0 2.0 0.00 0.00 0.00 99 1022.4
20260904100403 64 34 1.0 2.0 0.00 0.00 0.00 99 1022.5
20260904100303 64 33 1.0 2.0 0.00 0.00 0.00 99 1022.5
20260904100203 64 26 1.0 2.0 0.00 0.00 0.00 99 1022.4
20260904100124 64 31 1.0 1.0 0.00 0.00 0.00 99 1022.4
20260904100003 64 30 1.0 1.0 0.00 0.00 0.00 99 1022.5
20260904095924 64 31 1.0 1.0 0.00 0.00 0.00 99 1022.4
20260904095803 64 33 1.0 2.0 0.00 0.00 0.00 99 1022.4
20260904095703 64 34 1.0 2.0 0.00 0.00 0.00 99 1022.2
20260904095603 64 34 1.0 2.0 0.00 0.00 0.00 99 1022.3
20260904095503 64 36 1.0 2.0 0.00 0.00 0.00 99 1022.4
20260904095403 64 35 1.0 2.0 0.00 0.00 0.00 99 1022.5
20260904095324 64 35 1.0 2.0 0.00 0.00 0.00 99 1022.5
20260904095224 64 38 1.0 2.0 0.00 0.00 0.00 99 1022.6
20260904095124 64 29 1.0 2.0 0.00 0.00 0.00 99 1022.4
20260904095003 64 30 1.0 2.0 0.00 0.00 0.00 99 1022.7
20260904094903 64 27 1.0 2.0 0.00 0.00 0.00 99 1022.7
20260904094803 64 27 1.0 2.0 0.00 0.00 0.00 99 1022.7
20260904094703 64 30 1.0 2.0 0.00 0.00 0.00 99 1022.6
20260904094603 64 30 1.0 2.0 0.00 0.00 0.00 99 1022.8
20260904094524 64 28 1.0 2.0 0.00 0.00 0.00 99 1022.7
20260904094424 64 27 1.0 2.0 0.00 0.00 0.00 99 1022.6
20260904094303 64 27 1.0 2.0 0.00 0.00 0.00 99 1022.6
20260904094203 64 28 1.0 2.0 0.00 0.00 0.00 99 1022.5
20260904094103 64 39 1.0 2.0 0.00 0.00 0.00 99 1022.6
20260904094003 64 39 1.0 2.0 0.00 0.00 0.00 99 1022.6
20260904093903 64 39 1.0 2.0 0.00 0.00 0.00 99 1022.7
20260904093803 64 39 1.0 2.0 0.00 0.00 0.00 99 1022.6
20260904093703 64 36 1.0 1.0 0.00 0.00 0.00 99 1022.7
20260904093603 64 36 1.0 1.0 0.00 0.00 0.00 99 1022.7
20260904093503 64 35 0.0 1.0 0.00 0.00 0.00 99 1022.6
20260904093403 64 36 0.0 1.0 0.00 0.00 0.00 99 1022.4
20260904093303 64 41 0.0 2.0 0.00 0.00 0.00 99 1022.5
20260904093203 64 41 0.0 2.0 0.00 0.00 0.00 99 1022.5
20260904093103 64 42 0.0 2.0 0.00 0.00 0.00 99 1022.5
20260904093003 63 47 1.0 2.0 0.00 0.00 0.00 99 1022.5
20260904092924 63 46 1.0 2.0 0.00 0.00 0.00 99 1022.5
20260904092803 64 46 1.0 2.0 0.00 0.00 0.00 99 1022.6
20260904092703 64 46 1.0 2.0 0.00 0.00 0.00 99 1022.6
20260904092603 63 47 1.0 2.0 0.00 0.00 0.00 99 1022.5
20260904092504 63 48 1.0 2.0 0.00 0.00 0.00 99 1022.5
20260904092403 63 46 1.0 2.0 0.00 0.00 0.00 99 1022.6
20260904092306 63 46 1.0 2.0 0.00 0.00 0.00 99 1022.7
20260904092203 63 48 1.0 2.0 0.00 0.00 0.00 99 1022.7
20260904092103 63 50 1.0 2.0 0.00 0.00 0.00 99 1022.9
20260904092004 63 51 1.0 2.0 0.00 0.00 0.00 99 1022.7
20260904091903 63 53 1.0 2.0 0.00 0.00 0.00 99 1022.4
20260904091824 63 55 2.0 2.0 0.00 0.00 0.00 99 1022.6
20260904091703 63 54 2.0 2.0 0.00 0.00 0.00 99 1022.8
20260904091603 63 56 2.0 2.0 0.00 0.00 0.00 99 1022.7
20260904091503 63 58 2.0 2.0 0.00 0.00 0.00 99 1022.7
20260904091403 62 59 2.0 2.0 0.00 0.00 0.00 99 1022.9
20260904091303 62 62 2.0 2.0 0.00 0.00 0.00 99 1022.9
20260904091203 62 61 2.0 2.0 0.00 0.00 0.00 99 1022.8
20260904091103 62 64 2.0 3.0 0.00 0.00 0.00 99 1022.8
20260904091003 62 64 2.0 3.0 0.00 0.00 0.00 99 1022.7
20260904090903 62 63 2.0 3.0 0.00 0.00 0.00 99 1022.8
20260904090803 62 63 2.0 3.0 0.00 0.00 0.00 99 1022.7
20260904090703 62 69 2.0 3.0 0.00 0.00 0.00 99 1022.9
20260904090603 62 69 2.0 3.0 0.00 0.00 0.00 99 1022.9
20260904090503 62 69 2.0 3.0 0.00 0.00 0.00 99 1022.7
20260904090403 62 71 2.0 3.0 0.00 0.00 0.00 99 1022.9
20260904090303 62 70 2.0 3.0 0.00 0.00 0.00 99 1022.6
20260904090203 62 70 2.0 3.0 0.00 0.00 0.00 99 1022.7
20260904090003 62 68 2.0 3.0 0.00 0.00 0.00 99 1022.9
20260904085903 63 69 2.0 3.0 0.00 0.00 0.00 99 1022.8
20260904085803 63 73 2.0 3.0 0.00 0.00 0.00 99 1022.7
20260904085703 63 70 2.0 3.0 0.00 0.00 0.00 99 1022.7
20260904085603 63 62 2.0 2.0 0.00 0.00 0.00 99 1022.7
20260904085524 63 63 2.0 2.0 0.00 0.00 0.00 99 1022.6
20260904085424 62 62 2.0 2.0 0.00 0.00 0.00 99 1022.6
20260904085324 62 63 2.0 2.0 0.00 0.00 0.00 99 1022.7
20260904085203 62 66 2.0 2.0 0.00 0.00 0.00 99 1022.6
20260904085124 62 64 2.0 2.0 0.00 0.00 0.00 99 1022.6
20260904085003 62 63 2.0 2.0 0.00 0.00 0.00 99 1022.8
20260904084924 62 65 2.0 2.0 0.00 0.00 0.00 99 1022.7
20260904084824 62 61 2.0 2.0 0.00 0.00 0.00 99 1022.7
20260904084703 62 61 2.0 2.0 0.00 0.00 0.00 99 1022.9
20260904084603 62 61 2.0 2.0 0.00 0.00 0.00 99 1022.8
20260904084503 62 63 2.0 2.0 0.00 0.00 0.00 99 1022.8
20260904084403 62 61 2.0 2.0 0.00 0.00 0.00 99 1022.8
20260904084303 62 56 2.0 2.0 0.00 0.00 0.00 99 1022.8
20260904084203 62 56 1.0 2.0 0.00 0.00 0.00 99 1022.7
20260904084103 62 50 1.0 2.0 0.00 0.00 0.00 99 1022.8
20260904084003 62 50 1.0 2.0 0.00 0.00 0.00 99 1022.7
20260904083903 62 44 1.0 2.0 0.00 0.00 0.00 99 1022.5
20260904083803 62 44 1.0 2.0 0.00 0.00 0.00 99 1022.8
20260904083724 62 39 1.0 2.0 0.00 0.00 0.00 99 1022.8
20260904083603 62 38 1.0 2.0 0.00 0.00 0.00 99 1022.8
20260904083503 62 39 1.0 2.0 0.00 0.00 0.00 99 1022.8
20260904083424 62 43 1.0 2.0 0.00 0.00 0.00 99 1022.8
20260904083324 62 44 1.0 2.0 0.00 0.00 0.00 99 1022.6
20260904083203 62 46 1.0 2.0 0.00 0.00 0.00 99 1022.8
20260904083103 62 46 1.0 2.0 0.00 0.00 0.00 99 1022.9
20260904083003 62 46 1.0 2.0 0.00 0.00 0.00 99 1023.0
20260904082903 62 46 1.0 2.0 0.00 0.00 0.00 99 1022.7
20260904082803 62 46 1.0 2.0 0.00 0.00 0.00 99 1022.9
20260904082703 62 45 1.0 2.0 0.00 0.00 0.00 99 1023.0
20260904082603 62 44 1.0 2.0 0.00 0.00 0.00 99 1022.9
20260904082503 62 42 1.0 2.0 0.00 0.00 0.00 99 1022.9
20260904082403 62 36 1.0 2.0 0.00 0.00 0.00 99 1022.8
20260904082324 62 33 1.0 2.0 0.00 0.00 0.00 99 1022.9
20260904082203 62 19 1.0 2.0 0.00 0.00 0.00 99 1022.9
20260904082124 62 17 1.0 2.0 0.00 0.00 0.00 99 1022.9
20260904082003 62 14 1.0 2.0 0.00 0.00 0.00 99 1022.8
20260904081903 62 12 1.0 2.0 0.00 0.00 0.00 99 1023.0
20260904081803 62 11 1.0 2.0 0.00 0.00 0.00 99 1022.8
20260904081703 62 10 1.0 2.0 0.00 0.00 0.00 99 1022.8
20260904081603 62 10 1.0 2.0 0.00 0.00 0.00 99 1022.8
20260904081524 62 10 1.0 2.0 0.00 0.00 0.00 99 1022.8
20260904081403 62 9 1.0 2.0 0.00 0.00 0.00 99 1022.9
20260904081303 62 6 1.0 2.0 0.00 0.00 0.00 99 1022.9
20260904081203 62 4 1.0 2.0 0.00 0.00 0.00 99 1022.7
20260904081103 62 5 1.0 2.0 0.00 0.00 0.00 99 1022.9
20260904081003 62 9 1.0 2.0 0.00 0.00 0.00 99 1022.8
20260904080903 62 13 1.0 2.0 0.00 0.00 0.00 99 1022.7
20260904080803 62 13 1.0 2.0 0.00 0.00 0.00 99 1022.8
20260904080703 61 10 1.0 2.0 0.00 0.00 0.00 99 1022.7
20260904080624 61 8 1.0 2.0 0.00 0.00 0.00 99 1022.8
20260904080503 61 354 1.0 2.0 0.00 0.00 0.00 99 1022.9
20260904080403 61 352 1.0 2.0 0.00 0.00 0.00 99 1022.7
20260904080303 61 354 1.0 2.0 0.00 0.00 0.00 99 1022.8
20260904080224 61 357 1.0 2.0 0.00 0.00 0.00 99 1022.7
20260904080003 61 358 1.0 2.0 0.00 0.00 0.00 99 1022.8
20260904075903 61 4 1.0 2.0 0.00 0.00 0.00 99 1022.6
20260904075803 61 355 1.0 2.0 0.00 0.00 0.00 99 1022.5
20260904075703 61 357 1.0 2.0 0.00 0.00 0.00 99 1022.6
20260904075603 61 355 1.0 2.0 0.00 0.00 0.00 99 1022.8
20260904075503 61 3 1.0 2.0 0.00 0.00 0.00 99 1022.6
20260904075403 61 14 1.0 2.0 0.00 0.00 0.00 99 1022.6
20260904075306 61 21 1.0 2.0 0.00 0.00 0.00 99 1022.5
20260904075203 61 21 1.0 2.0 0.00 0.00 0.00 99 1022.5
20260904075124 61 19 1.0 2.0 0.00 0.00 0.00 99 1022.4
20260904075003 61 20 1.0 2.0 0.00 0.00 0.00 99 1022.6
20260904074903 61 13 0.0 1.0 0.00 0.00 0.00 99 1022.5
20260904074803 61 13 0.0 1.0 0.00 0.00 0.00 99 1022.5
20260904074703 62 29 1.0 2.0 0.00 0.00 0.00 99 1022.6
20260904074603 62 45 1.0 3.0 0.00 0.00 0.00 99 1022.5
20260904074503 61 49 1.0 3.0 0.00 0.00 0.00 99 1022.5
20260904074403 61 49 1.0 3.0 0.00 0.00 0.00 99 1022.5
20260904074303 61 49 1.0 3.0 0.00 0.00 0.00 99 1022.4
20260904074224 61 49 1.0 3.0 0.00 0.00 0.00 99 1022.5
20260904074103 61 53 1.0 3.0 0.00 0.00 0.00 99 1022.6
20260904074003 61 53 1.0 3.0 0.00 0.00 0.00 99 1022.6
20260904073903 61 48 1.0 3.0 0.00 0.00 0.00 99 1022.5
20260904073803 61 50 1.0 3.0 0.00 0.00 0.00 99 1022.4
20260904073703 61 30 1.0 2.0 0.00 0.00 0.00 99 1022.7
20260904073603 61 30 1.0 2.0 0.00 0.00 0.00 99 1022.7
20260904073503 61 34 1.0 2.0 0.00 0.00 0.00 99 1022.5
20260904073403 61 30 1.0 2.0 0.00 0.00 0.00 99 1022.3
20260904073303 61 23 0.0 2.0 0.00 0.00 0.00 99 1022.4
20260904073203 61 23 0.0 2.0 0.00 0.00 0.00 99 1022.4
20260904073103 61 23 0.0 2.0 0.00 0.00 0.00 99 1022.3
20260904073003 61 35 1.0 2.0 0.00 0.00 0.00 99 1022.2
20260904072903 61 37 1.0 2.0 0.00 0.00 0.00 99 1022.2
20260904072824 61 37 1.0 2.0 0.00 0.00 0.00 99 1022.2
20260904072703 61 35 1.0 2.0 0.00 0.00 0.00 99 1022.4
20260904072603 61 31 1.0 2.0 0.00 0.00 0.00 99 1022.3
20260904072503 61 28 1.0 2.0 0.00 0.00 0.00 99 1022.3
20260904072403 61 31 1.0 2.0 0.00 0.00 0.00 99 1022.4
20260904072305 61 31 1.0 2.0 0.00 0.00 0.00 99 1022.3
20260904072203 61 31 1.0 2.0 0.00 0.00 0.00 99 1022.3
20260904072103 61 24 1.0 2.0 0.00 0.00 0.00 99 1022.3
20260904072003 61 24 1.0 2.0 0.00 0.00 0.00 99 1022.3
20260904071903 61 9 1.0 2.0 0.00 0.00 0.00 99 1022.2
20260904071803 61 16 1.0 2.0 0.00 0.00 0.00 99 1022.4
20260904071703 61 29 1.0 2.0 0.00 0.00 0.00 99 1022.3
20260904071603 61 29 1.0 2.0 0.00 0.00 0.00 99 1022.3
20260904071504 61 39 1.0 2.0 0.00 0.00 0.00 99 1022.3
20260904071403 61 34 1.0 2.0 0.00 0.00 0.00 99 1022.4
20260904071303 61 32 1.0 2.0 0.00 0.00 0.00 99 1022.4
20260904071224 61 32 1.0 2.0 0.00 0.00 0.00 99 1022.4
20260904071103 61 26 1.0 2.0 0.00 0.00 0.00 99 1022.2
20260904071003 61 31 1.0 2.0 0.00 0.00 0.00 99 1022.2
20260904070903 61 36 1.0 2.0 0.00 0.00 0.00 99 1022.0
20260904070803 61 36 1.0 2.0 0.00 0.00 0.00 99 1022.0
20260904070703 61 23 1.0 2.0 0.00 0.00 0.00 99 1022.2
20260904070603 61 11 1.0 2.0 0.00 0.00 0.00 99 1022.0
20260904070503 61 10 1.0 2.0 0.00 0.00 0.00 99 1022.1
20260904070403 61 10 1.0 2.0 0.00 0.00 0.00 99 1022.1
20260904070324 61 7 1.0 2.0 0.00 0.00 0.00 99 1021.9
20260904070203 61 8 1.0 2.0 0.00 0.00 0.00 99 1022.0
20260904070124 61 10 1.0 2.0 0.00 0.00 0.00 99 1022.1
20260904070024 61 10 1.0 2.0 0.00 0.00 0.00 99 1022.0
20260904065903 61 14 1.0 2.0 0.00 0.00 0.00 99 1021.9
20260904065824 61 17 1.0 2.0 0.00 0.00 0.00 99 1022.0
20260904065703 61 25 1.0 1.0 0.00 0.00 0.00 99 1021.8
20260904065603 61 25 1.0 1.0 0.00 0.00 0.00 99 1021.8
20260904065524 61 27 1.0 1.0 0.00 0.00 0.00 99 1021.9
20260904065403 61 30 1.0 1.0 0.00 0.00 0.00 99 1021.8
20260904065306 61 32 1.0 1.0 0.00 0.00 0.00 99 1021.8
20260904065203 61 32 1.0 1.0 0.00 0.00 0.00 99 1021.8
20260904065124 61 33 1.0 1.0 0.00 0.00 0.00 99 1021.8
20260904065003 61 31 1.0 1.0 0.00 0.00 0.00 99 1021.7
20260904064903 61 31 1.0 1.0 0.00 0.00 0.00 99 1021.7
20260904064803 61 31 1.0 1.0 0.00 0.00 0.00 99 1021.7
20260904064724 61 30 0.0 1.0 0.00 0.00 0.00 99 1021.8
20260904064603 61 30 0.0 1.0 0.00 0.00 0.00 99 1021.8
20260904064503 61 29 0.0 1.0 0.00 0.00 0.00 99 1021.6
20260904064424 61 29 0.0 1.0 0.00 0.00 0.00 99 1021.6
20260904064303 61 29 0.0 1.0 0.00 0.00 0.00 99 1021.7
20260904064203 61 29 0.0 1.0 0.00 0.00 0.00 99 1021.7
20260904064103 61 29 0.0 1.0 0.00 0.00 0.00 99 1021.6
20260904064003 61 29 0.0 1.0 0.00 0.00 0.00 99 1021.6
20260904063924 61 30 0.0 1.0 0.00 0.00 0.00 99 1021.6
20260904063803 61 30 0.0 1.0 0.00 0.00 0.00 99 1021.7
20260904063704 61 30 0.0 1.0 0.00 0.00 0.00 99 1021.5
20260904063624 61 30 0.0 1.0 0.00 0.00 0.00 99 1021.5
20260904063503 61 29 0.0 1.0 0.00 0.00 0.00 99 1021.6
20260904063403 61 29 0.0 1.0 0.00 0.00 0.00 99 1021.5
20260904063324 61 30 0.0 1.0 0.00 0.00 0.00 99 1021.6
20260904063203 61 30 0.0 1.0 0.00 0.00 0.00 99 1021.4
20260904063103 61 29 0.0 1.0 0.00 0.00 0.00 99 1021.3
20260904063024 61 29 1.0 1.0 0.00 0.00 0.00 99 1021.3
20260904062903 61 28 1.0 1.0 0.00 0.00 0.00 99 1021.3
20260904062803 61 29 1.0 1.0 0.00 0.00 0.00 99 1021.2
20260904062703 61 29 0.0 1.0 0.00 0.00 0.00 99 1021.4
20260904062603 61 29 0.0 1.0 0.00 0.00 0.00 99 1021.4
20260904062503 61 29 1.0 1.0 0.00 0.00 0.00 99 1021.4
20260904062403 61 29 1.0 1.0 0.00 0.00 0.00 99 1021.4
20260904062306 61 28 1.0 1.0 0.00 0.00 0.00 99 1021.4
20260904062203 61 29 1.0 1.0 0.00 0.00 0.00 99 1021.2
20260904062103 61 31 1.0 1.0 0.00 0.00 0.00 99 1021.2
20260904062003 61 31 1.0 1.0 0.00 0.00 0.00 99 1021.2
20260904061903 61 33 1.0 1.0 0.00 0.00 0.00 99 1021.0
20260904061803 61 33 1.0 1.0 0.00 0.00 0.00 99 1021.4
20260904061703 61 33 1.0 1.0 0.00 0.00 0.00 99 1021.1
20260904061603 61 33 1.0 1.0 0.00 0.00 0.00 99 1021.1
20260904061503 61 34 1.0 1.0 0.00 0.00 0.00 99 1021.1
20260904061403 61 34 1.0 1.0 0.00 0.00 0.00 99 1021.2
20260904061303 61 34 1.0 1.0 0.00 0.00 0.00 99 1021.2
20260904061203 61 34 1.0 1.0 0.00 0.00 0.00 99 1021.2
20260904061104 61 34 1.0 1.0 0.00 0.00 0.00 99 1021.0
20260904061003 61 34 1.0 1.0 0.00 0.00 0.00 99 1021.1
20260904060903 61 33 0.0 1.0 0.00 0.00 0.00 99 1021.1
20260904060803 61 33 0.0 1.0 0.00 0.00 0.00 99 1021.1
20260904060703 61 34 0.0 1.0 0.00 0.00 0.00 99 1021.1
20260904060603 61 34 0.0 1.0 0.00 0.00 0.00 99 1021.2
20260904060503 61 32 0.0 1.0 0.00 0.00 0.00 99 1021.1
20260904060403 61 32 0.0 1.0 0.00 0.00 0.00 99 1021.1
20260904060303 61 32 0.0 1.0 0.00 0.00 0.00 99 1021.1
20260904060204 61 32 0.0 1.0 0.00 0.00 0.00 99 1021.1
20260904060103 61 32 0.0 1.0 0.00 0.00 0.00 99 1021.2
20260904060003 61 32 0.0 1.0 0.00 0.00 0.00 99 1021.0
20260904055903 61 32 0.0 1.0 0.00 0.00 0.00 99 1021.1
20260904055824 61 32 0.0 1.0 0.00 0.00 0.00 99 1021.1
20260904055703 61 30 0.0 1.0 0.00 0.00 0.00 99 1020.9
20260904055603 61 30 0.0 1.0 0.00 0.00 0.00 99 1020.9
20260904055503 61 30 0.0 1.0 0.00 0.00 0.00 99 1020.9
20260904055403 61 32 0.0 1.0 0.00 0.00 0.00 99 1020.9
20260904055306 61 32 0.0 1.0 0.00 0.00 0.00 99 1020.9
20260904055203 61 32 0.0 1.0 0.00 0.00 0.00 99 1020.9
20260904055103 60 32 0.0 1.0 0.00 0.00 0.00 99 1021.0
20260904055003 60 32 0.0 1.0 0.00 0.00 0.00 99 1021.0
20260904054903 60 34 0.0 1.0 0.00 0.00 0.00 99 1021.0
20260904054803 60 34 0.0 1.0 0.00 0.00 0.00 99 1021.0
20260904054703 60 34 0.0 1.0 0.00 0.00 0.00 99 1020.9
20260904054603 60 35 1.0 1.0 0.00 0.00 0.00 99 1020.8
20260904054503 60 35 1.0 1.0 0.00 0.00 0.00 99 1021.0
20260904054403 60 36 1.0 1.0 0.00 0.00 0.00 99 1020.8
20260904054324 60 38 1.0 1.0 0.00 0.00 0.00 99 1020.9
20260904054204 60 38 1.0 1.0 0.00 0.00 0.00 99 1021.0
20260904054103 60 39 1.0 2.0 0.00 0.00 0.00 99 1021.0
20260904054003 60 41 1.0 2.0 0.00 0.00 0.00 99 1020.7
20260904053903 60 40 1.0 2.0 0.00 0.00 0.00 99 1021.0
20260904053803 60 40 1.0 2.0 0.00 0.00 0.00 99 1020.9
20260904053703 60 40 1.0 2.0 0.00 0.00 0.00 99 1020.8
20260904053624 60 40 1.0 2.0 0.00 0.00 0.00 99 1020.8
20260904053503 60 40 1.0 2.0 0.00 0.00 0.00 99 1020.8
20260904053403 60 39 1.0 2.0 0.00 0.00 0.00 99 1020.9
20260904053303 60 39 1.0 2.0 0.00 0.00 0.00 99 1020.8
20260904053203 60 38 1.0 2.0 0.00 0.00 0.00 99 1020.8
20260904053103 61 35 1.0 1.0 0.00 0.00 0.00 99 1020.8
20260904053024 61 34 1.0 1.0 0.00 0.00 0.00 99 1020.8
20260904052903 61 33 1.0 1.0 0.00 0.00 0.00 99 1020.8
20260904052824 61 33 1.0 1.0 0.00 0.00 0.00 99 1020.9
20260904052703 61 32 1.0 1.0 0.00 0.00 0.00 99 1020.6
20260904052603 61 32 1.0 1.0 0.00 0.00 0.00 99 1020.7
20260904052503 61 31 1.0 1.0 0.00 0.00 0.00 99 1020.7
20260904052403 61 31 1.0 1.0 0.00 0.00 0.00 99 1020.7
20260904052306 61 31 0.0 1.0 0.00 0.00 0.00 99 1020.7
20260904052203 61 30 0.0 1.0 0.00 0.00 0.00 99 1020.7
20260904052103 61 28 0.0 1.0 0.00 0.00 0.00 99 1020.8
20260904052003 61 28 0.0 1.0 0.00 0.00 0.00 99 1020.8
20260904051924 60 28 0.0 1.0 0.00 0.00 0.00 99 1020.6
20260904051824 60 28 0.0 1.0 0.00 0.00 0.00 99 1020.8
20260904051703 60 28 0.0 1.0 0.00 0.00 0.00 99 1020.7
20260904051603 60 28 0.0 1.0 0.00 0.00 0.00 99 1020.7
20260904051503 60 0 0.0 0.0 0.00 0.00 0.00 99 1020.8
20260904051403 60 0 0.0 0.0 0.00 0.00 0.00 99 1020.8
20260904051303 60 35 0.0 1.0 0.00 0.00 0.00 99 1020.8
20260904051203 60 35 0.0 1.0 0.00 0.00 0.00 99 1020.8
20260904051124 60 35 0.0 1.0 0.00 0.00 0.00 99 1020.7
20260904051003 60 36 0.0 1.0 0.00 0.00 0.00 99 1020.8
20260904050903 60 36 0.0 1.0 0.00 0.00 0.00 99 1020.7
20260904050803 60 36 0.0 1.0 0.00 0.00 0.00 99 1020.7
20260904050704 60 35 0.0 1.0 0.00 0.00 0.00 99 1020.6
20260904050603 60 35 1.0 1.0 0.00 0.01 0.00 99 1020.7
20260904050503 60 36 1.0 1.0 0.00 0.01 0.00 99 1020.8
20260904050403 60 36 1.0 1.0 0.00 0.01 0.00 99 1020.9
20260904050303 60 35 1.0 1.0 0.00 0.01 0.00 99 1020.6
20260904050203 60 35 1.0 1.0 0.00 0.01 0.00 99 1020.7
20260904050124 60 35 1.0 1.0 0.00 0.01 0.00 99 1020.6
20260904050003 60 34 1.0 1.0 0.00 0.01 0.00 99 1020.8
20260904045903 60 34 1.0 1.0 0.00 0.01 0.00 99 1020.8
20260904045803 60 34 1.0 1.0 0.00 0.01 0.00 99 1020.8
20260904045703 60 33 0.0 1.0 0.00 0.01 0.00 99 1020.6
20260904045603 60 33 0.0 1.0 0.00 0.01 0.00 99 1020.6
20260904045524 60 33 0.0 1.0 0.00 0.01 0.00 99 1020.9
20260904045403 60 32 0.0 1.0 0.00 0.01 0.00 99 1020.8
20260904045324 60 32 0.0 1.0 0.00 0.01 0.00 99 1020.8
20260904045203 60 32 0.0 1.0 0.00 0.01 0.00 99 1020.9
20260904045103 60 31 0.0 1.0 0.00 0.01 0.00 99 1020.9
20260904045003 60 31 0.0 1.0 0.00 0.01 0.00 99 1020.6
20260904044924 60 32 0.0 1.0 0.00 0.01 0.00 99 1020.8
20260904044804 60 32 0.0 1.0 0.00 0.01 0.00 99 1021.0
20260904044703 60 32 0.0 1.0 0.00 0.01 0.00 99 1020.8
20260904044603 60 32 0.0 1.0 0.00 0.01 0.00 99 1020.7
20260904044503 60 32 0.0 1.0 0.00 0.01 0.00 99 1020.7
20260904044403 60 32 0.0 1.0 0.00 0.01 0.00 99 1020.7
20260904044303 60 33 1.0 1.0 0.00 0.01 0.00 99 1020.8
20260904044203 60 32 1.0 1.0 0.00 0.01 0.00 99 1020.6
20260904044124 60 33 1.0 1.0 0.00 0.01 0.00 99 1020.8
20260904044003 60 33 1.0 1.0 0.00 0.01 0.00 99 1020.8
20260904043903 60 34 1.0 1.0 0.00 0.01 0.00 99 1020.7
20260904043804 60 34 1.0 1.0 0.00 0.01 0.00 99 1020.7
20260904043724 60 33 1.0 1.0 0.00 0.01 0.00 99 1020.8
20260904043624 60 34 1.0 1.0 0.00 0.01 0.00 99 1020.7
20260904043524 60 33 1.0 1.0 0.00 0.01 0.00 99 1020.7
20260904043403 60 33 1.0 1.0 0.00 0.01 0.00 99 1020.8
20260904043325 60 32 1.0 1.0 0.00 0.01 0.00 99 1020.9
20260904043203 60 32 1.0 1.0 0.00 0.01 0.00 99 1020.9
20260904043103 60 33 1.0 1.0 0.00 0.01 0.00 99 1020.7
20260904043024 60 33 1.0 1.0 0.00 0.01 0.00 99 1020.8
20260904042903 60 34 1.0 1.0 0.00 0.01 0.00 99 1020.9
20260904042824 60 34 1.0 1.0 0.00 0.01 0.00 99 1020.9
20260904042703 60 33 1.0 1.0 0.00 0.01 0.00 99 1020.9
20260904042624 60 34 1.0 1.0 0.00 0.01 0.00 99 1020.8
20260904042524 60 35 1.0 1.0 0.00 0.01 0.00 99 1020.8
20260904042403 60 36 1.0 1.0 0.00 0.01 0.00 99 1020.8
20260904042306 60 37 1.0 1.0 0.00 0.01 0.00 99 1020.8
20260904042224 60 37 1.0 2.0 0.00 0.01 0.00 99 1020.8
20260904042103 60 37 1.0 2.0 0.00 0.01 0.00 99 1020.7
20260904042003 60 37 1.0 2.0 0.00 0.01 0.00 99 1020.7
20260904041903 60 36 1.0 2.0 0.00 0.01 0.00 99 1020.9
20260904041824 60 35 1.0 2.0 0.00 0.01 0.00 99 1020.9
20260904041703 60 34 1.0 2.0 0.00 0.01 0.00 99 1020.8
20260904041603 60 34 1.0 2.0 0.00 0.01 0.00 99 1020.8
20260904041524 60 30 1.0 2.0 0.00 0.01 0.00 99 1020.9
20260904041403 60 23 1.0 2.0 0.00 0.01 0.00 99 1020.9
20260904041303 60 17 1.0 2.0 0.00 0.01 0.00 99 1020.8
20260904041224 60 17 1.0 2.0 0.00 0.01 0.00 99 1020.8
20260904041103 60 12 1.0 1.0 0.00 0.01 0.00 99 1020.7
20260904041003 60 8 1.0 1.0 0.00 0.01 0.00 99 1020.9
20260904040903 60 360 1.0 1.0 0.00 0.01 0.00 99 1021.0
20260904040803 60 360 1.0 1.0 0.00 0.01 0.00 99 1021.0
20260904040703 60 355 0.0 1.0 0.00 0.01 0.00 99 1020.9
20260904040603 60 350 0.0 1.0 0.00 0.01 0.00 99 1020.9
20260904040524 60 350 0.0 1.0 0.00 0.01 0.00 99 1020.9
20260904040424 60 350 0.0 1.0 0.00 0.01 0.00 99 1020.9
20260904040303 61 350 0.0 1.0 0.00 0.01 0.00 99 1020.8
20260904040204 61 350 0.0 1.0 0.00 0.01 0.00 99 1021.1
20260904040103 61 350 0.0 1.0 0.00 0.01 0.00 99 1021.0
20260904040004 61 350 0.0 1.0 0.00 0.01 0.00 99 1021.0
20260904035903 61 350 0.0 1.0 0.00 0.01 0.00 99 1021.0
20260904035824 61 350 0.0 1.0 0.00 0.01 0.00 99 1020.9
20260904035724 61 350 0.0 1.0 0.00 0.01 0.00 99 1020.8
20260904035624 61 350 0.0 1.0 0.00 0.01 0.00 99 1020.9
20260904035503 61 350 0.0 1.0 0.00 0.01 0.00 99 1021.0
20260904035403 61 350 0.0 1.0 0.00 0.01 0.00 99 1020.9
20260904035324 61 350 0.0 1.0 0.00 0.01 0.00 99 1021.1
20260904035203 61 350 0.0 1.0 0.00 0.01 0.00 99 1021.0
20260904035103 61 350 0.0 1.0 0.00 0.01 0.00 99 1021.0
20260904035003 61 350 0.0 1.0 0.00 0.01 0.00 99 1021.0
20260904034903 61 350 0.0 1.0 0.00 0.01 0.00 99 1021.0
20260904034803 61 350 0.0 1.0 0.00 0.01 0.00 99 1021.0
20260904034703 61 350 0.0 1.0 0.00 0.01 0.00 99 1021.0
20260904034624 61 350 0.0 1.0 0.00 0.01 0.00 99 1021.0
20260904034504 61 350 0.0 1.0 0.00 0.01 0.00 99 1021.0
20260904034403 61 350 0.0 1.0 0.00 0.01 0.00 99 1021.0
20260904034303 61 350 0.0 1.0 0.00 0.01 0.00 99 1021.0
20260904034203 61 350 0.0 1.0 0.00 0.01 0.00 99 1021.0
20260904034124 61 350 0.0 1.0 0.00 0.01 0.00 99 1021.2
20260904034003 61 350 0.0 1.0 0.00 0.01 0.00 99 1021.1
20260904033904 61 0 0.0 0.0 0.00 0.01 0.00 99 1021.2
20260904033803 61 350 0.0 1.0 0.00 0.01 0.00 99 1021.2
20260904033703 61 350 0.0 1.0 0.00 0.01 0.00 99 1021.1
20260904033603 61 350 0.0 1.0 0.00 0.01 0.00 99 1021.1
20260904033503 61 350 0.0 1.0 0.00 0.01 0.00 99 1021.1
20260904033403 61 350 0.0 1.0 0.00 0.01 0.00 99 1020.9
20260904033303 61 350 0.0 1.0 0.00 0.01 0.00 99 1021.1
20260904033203 61 350 0.0 1.0 0.00 0.01 0.00 99 1021.1
20260904033103 61 350 0.0 1.0 0.00 0.01 0.00 99 1021.2
20260904033003 61 350 0.0 1.0 0.00 0.01 0.00 99 1021.1
20260904032903 60 0 0.0 0.0 0.00 0.01 0.00 99 1021.1
20260904032803 60 0 0.0 0.0 0.00 0.01 0.00 99 1021.1
20260904032703 60 0 0.0 0.0 0.00 0.01 0.00 99 1021.0
20260904032624 60 0 0.0 0.0 0.00 0.01 0.00 99 1021.0
20260904032504 60 0 0.0 0.0 0.00 0.01 0.00 99 1020.9
20260904032403 60 0 0.0 0.0 0.00 0.01 0.00 99 1021.0
20260904032305 60 0 0.0 0.0 0.00 0.01 0.00 99 1021.0
20260904032203 60 0 0.0 0.0 0.00 0.01 0.00 99 1021.1
20260904032103 60 0 0.0 0.0 0.00 0.01 0.00 99 1020.9
20260904032003 60 0 0.0 0.0 0.00 0.01 0.00 99 1020.9
20260904031903 60 0 0.0 0.0 0.00 0.01 0.00 99 1021.2
20260904031803 60 0 0.0 0.0 0.00 0.01 0.00 99 1020.9
20260904031702 60 0 0.0 0.0 0.00 0.01 0.00 99 1020.9
20260904031602 60 0 0.0 0.0 0.00 0.01 0.00 99 1020.9
20260904031503 60 350 0.0 1.0 0.00 0.01 0.00 99 1021.1
20260904031403 60 350 0.0 1.0 0.00 0.01 0.00 99 1021.1
20260904031303 60 350 0.0 1.0 0.00 0.01 0.00 99 1021.0
20260904031203 60 350 0.0 1.0 0.00 0.01 0.00 99 1021.0
20260904031103 60 350 0.0 1.0 0.00 0.01 0.00 99 1021.1
20260904031003 60 350 0.0 1.0 0.00 0.01 0.00 99 1021.2
20260904030903 61 350 0.0 1.0 0.00 0.01 0.00 99 1021.1
20260904030803 61 350 0.0 1.0 0.00 0.01 0.00 99 1021.1
20260904030703 61 350 0.0 1.0 0.00 0.01 0.00 99 1021.1
20260904030603 61 350 0.0 1.0 0.00 0.01 0.00 99 1021.2
20260904030502 61 0 0.0 0.0 0.00 0.01 0.00 99 1021.1
20260904030402 61 0 0.0 0.0 0.00 0.01 0.00 99 1021.1
20260904030302 61 0 0.0 0.0 0.00 0.01 0.00 99 1021.1
20260904030203 61 0 0.0 0.0 0.00 0.01 0.00 99 1021.1
20260904030003 60 0 0.0 0.0 0.00 0.01 0.00 99 1021.2
20260904025903 60 350 0.0 1.0 0.00 0.01 0.00 99 1021.1
20260904025803 60 350 0.0 1.0 0.00 0.01 0.00 99 1021.1
20260904025703 60 350 0.0 1.0 0.00 0.01 0.00 99 1021.3
20260904025603 60 350 0.0 1.0 0.00 0.01 0.00 99 1021.3
20260904025503 60 350 0.0 1.0 0.00 0.01 0.00 99 1021.2
20260904025403 60 350 0.0 1.0 0.00 0.01 0.00 99 1021.2
20260904025306 60 350 0.0 1.0 0.00 0.01 0.00 99 1021.1
20260904025203 60 350 0.0 1.0 0.00 0.01 0.00 99 1021.1
20260904025103 60 350 0.0 1.0 0.00 0.01 0.00 99 1021.2
20260904025024 60 350 0.0 1.0 0.00 0.01 0.00 99 1021.0
20260904024903 60 350 0.0 1.0 0.00 0.01 0.00 99 1021.3
20260904024803 60 350 0.0 1.0 0.00 0.01 0.00 99 1021.3
20260904024702 60 350 0.0 1.0 0.00 0.01 0.00 99 1021.1
20260904024603 60 350 0.0 1.0 0.00 0.01 0.00 99 1021.1
20260904024503 60 350 0.0 1.0 0.00 0.01 0.00 99 1021.2
20260904024403 60 350 0.0 1.0 0.00 0.01 0.00 99 1021.2
20260904024302 60 350 0.0 1.0 0.00 0.01 0.00 99 1021.2
20260904024203 60 350 0.0 1.0 0.00 0.01 0.00 99 1021.0
20260904024102 60 350 0.0 1.0 0.00 0.01 0.00 99 1021.1
20260904024002 60 350 0.0 1.0 0.00 0.01 0.00 99 1021.1
20260904023903 60 350 0.0 1.0 0.00 0.01 0.00 99 1021.0
20260904023803 60 350 0.0 1.0 0.00 0.01 0.00 99 1021.1
20260904023703 60 0 0.0 0.0 0.00 0.01 0.00 99 1021.0
20260904023603 60 0 0.0 0.0 0.00 0.01 0.00 99 1021.0
20260904023503 60 0 0.0 0.0 0.00 0.01 0.00 99 1021.0
20260904023424 60 0 0.0 0.0 0.00 0.01 0.00 99 1021.1
20260904023303 60 0 0.0 0.0 0.00 0.01 0.00 99 1021.0
20260904023203 60 0 0.0 0.0 0.00 0.01 0.00 99 1021.0
20260904023103 60 350 0.0 1.0 0.00 0.01 0.00 99 1021.0
20260904023003 60 350 0.0 1.0 0.00 0.01 0.00 99 1021.0
20260904022903 60 350 0.0 1.0 0.00 0.01 0.00 99 1021.2
20260904022824 60 350 0.0 1.0 0.00 0.01 0.00 99 1021.1
20260904022724 60 350 0.0 1.0 0.00 0.01 0.00 99 1021.0
20260904022624 60 350 0.0 1.0 0.00 0.01 0.00 99 1021.3
20260904022503 60 350 0.0 1.0 0.00 0.01 0.00 99 1021.2
20260904022403 60 350 0.0 1.0 0.00 0.01 0.00 99 1021.2
20260904022305 61 350 0.0 1.0 0.00 0.01 0.00 99 1021.1
20260904022224 61 350 0.0 1.0 0.00 0.01 0.00 99 1021.2
20260904022103 61 0 0.0 0.0 0.00 0.01 0.00 99 1021.1
20260904022024 61 0 0.0 0.0 0.00 0.01 0.00 99 1021.2
20260904021903 61 0 0.0 0.0 0.00 0.01 0.00 99 1021.3
20260904021803 61 0 0.0 0.0 0.00 0.01 0.00 99 1021.1
20260904021703 61 0 0.0 0.0 0.00 0.01 0.00 99 1021.2
20260904021603 61 350 0.0 1.0 0.00 0.01 0.00 99 1021.2
20260904021503 61 350 0.0 1.0 0.00 0.01 0.00 99 1021.1
20260904021403 61 350 0.0 1.0 0.00 0.01 0.00 99 1021.1
20260904021303 61 350 0.0 1.0 0.00 0.01 0.00 99 1021.4
20260904021202 61 350 0.0 1.0 0.00 0.01 0.00 99 1021.2
20260904021103 61 350 0.0 1.0 0.00 0.01 0.00 99 1021.2
20260904021003 61 350 0.0 1.0 0.00 0.01 0.00 99 1021.2
20260904020903 61 350 0.0 1.0 0.00 0.01 0.00 99 1021.1
20260904020803 61 350 0.0 1.0 0.00 0.01 0.00 99 1021.2
20260904020703 62 350 1.0 1.0 0.00 0.01 0.00 99 1021.1
20260904020602 62 350 1.0 1.0 0.00 0.01 0.00 99 1021.1
20260904020524 61 350 1.0 1.0 0.00 0.01 0.00 99 1021.0
20260904020424 61 350 1.0 1.0 0.00 0.01 0.00 99 1021.2
20260904020324 61 350 1.0 1.0 0.00 0.01 0.00 99 1021.1
20260904020203 61 350 1.0 1.0 0.00 0.01 0.00 99 1021.2
20260904020003 61 350 1.0 1.0 0.00 0.01 0.00 99 1021.1
20260904015903 61 350 1.0 1.0 0.00 0.01 0.00 99 1021.1
20260904015803 61 350 0.0 1.0 0.00 0.01 0.00 99 1021.3
20260904015703 61 350 0.0 1.0 0.00 0.01 0.00 99 1021.1
20260904015603 61 350 0.0 1.0 0.00 0.01 0.00 99 1021.2
20260904015503 61 350 0.0 1.0 0.00 0.01 0.00 99 1021.3
20260904015403 61 350 0.0 1.0 0.00 0.01 0.00 99 1021.3
20260904015306 61 350 0.0 1.0 0.00 0.01 0.00 99 1021.3
20260904015203 61 350 0.0 1.0 0.00 0.01 0.00 99 1021.4
20260904015124 61 350 0.0 1.0 0.00 0.01 0.00 99 1021.3
20260904015003 61 350 0.0 1.0 0.00 0.01 0.00 99 1021.4
20260904014903 61 350 0.0 1.0 0.00 0.01 0.00 99 1021.2
20260904014803 61 350 0.0 1.0 0.00 0.01 0.00 99 1021.1
20260904014703 61 350 0.0 1.0 0.00 0.01 0.00 99 1021.5
20260904014624 61 350 0.0 1.0 0.00 0.01 0.00 99 1021.3
20260904014503 61 350 0.0 1.0 0.00 0.01 0.00 99 1021.3
20260904014403 61 350 0.0 1.0 0.00 0.01 0.00 99 1021.4
20260904014303 61 350 0.0 1.0 0.00 0.01 0.00 99 1021.4
20260904014203 61 350 0.0 1.0 0.00 0.01 0.00 99 1021.4
20260904014103 61 350 0.0 1.0 0.00 0.01 0.00 99 1021.4
20260904014003 61 0 0.0 0.0 0.00 0.01 0.00 99 1021.3
20260904013903 61 350 0.0 1.0 0.00 0.01 0.00 99 1021.4
20260904013803 61 350 0.0 1.0 0.00 0.01 0.00 99 1021.5
20260904013724 62 350 0.0 1.0 0.00 0.01 0.00 99 1021.5
20260904013603 62 350 0.0 1.0 0.00 0.01 0.00 99 1021.5
20260904013524 62 350 0.0 1.0 0.00 0.01 0.00 99 1021.5
20260904013424 62 350 0.0 1.0 0.00 0.01 0.00 99 1021.5
20260904013303 62 350 0.0 1.0 0.00 0.01 0.00 99 1021.5
20260904013203 62 350 0.0 1.0 0.00 0.01 0.00 99 1021.7
20260904013103 62 350 0.0 1.0 0.00 0.01 0.00 99 1021.5
20260904013003 62 350 0.0 1.0 0.00 0.01 0.00 99 1021.7
20260904012903 62 350 0.0 1.0 0.00 0.01 0.00 99 1021.7
20260904012803 62 350 0.0 1.0 0.00 0.01 0.00 99 1021.7
20260904012703 62 350 0.0 1.0 0.00 0.01 0.00 99 1021.8
20260904012603 62 0 0.0 0.0 0.00 0.01 0.00 99 1021.6
20260904012503 62 0 0.0 0.0 0.00 0.01 0.00 99 1021.9
20260904012403 62 0 0.0 0.0 0.00 0.01 0.00 99 1021.8
20260904012306 62 0 0.0 0.0 0.00 0.01 0.00 99 1021.7
20260904012203 62 0 0.0 0.0 0.00 0.01 0.00 99 1021.9
20260904012103 62 0 0.0 0.0 0.00 0.01 0.00 99 1021.8
20260904012003 62 0 0.0 0.0 0.00 0.01 0.00 99 1021.8
20260904011903 62 0 0.0 0.0 0.00 0.01 0.00 99 1021.7
20260904011803 62 0 0.0 0.0 0.00 0.01 0.00 99 1021.6
20260904011703 62 0 0.0 0.0 0.00 0.01 0.00 99 1021.6
20260904011603 62 0 0.0 0.0 0.00 0.01 0.00 99 1021.8
20260904011503 62 0 0.0 0.0 0.00 0.01 0.00 99 1021.6
20260904011403 62 0 0.0 0.0 0.00 0.01 0.00 99 1021.6
20260904011303 62 0 0.0 0.0 0.00 0.01 0.00 99 1021.7
20260904011203 62 0 0.0 0.0 0.00 0.01 0.00 99 1021.6
20260904011103 62 0 0.0 0.0 0.00 0.01 0.00 99 1021.6
20260904011003 62 0 0.0 0.0 0.00 0.01 0.00 99 1021.7
20260904010903 62 0 0.0 0.0 0.00 0.01 0.00 99 1021.7
20260904010803 62 0 0.0 0.0 0.00 0.01 0.00 99 1021.7
20260904010703 62 0 0.0 0.0 0.00 0.01 0.00 99 1021.7
20260904010603 62 0 0.0 0.0 0.00 0.01 0.00 99 1021.7
20260904010503 62 0 0.0 0.0 0.00 0.01 0.00 99 1021.8
20260904010403 62 0 0.0 0.0 0.00 0.01 0.00 99 1021.7
20260904010303 62 0 0.0 0.0 0.00 0.01 0.00 99 1021.9
20260904010203 62 0 0.0 0.0 0.00 0.01 0.00 99 1021.6
20260904010003 62 350 0.0 1.0 0.00 0.01 0.00 99 1021.6
20260904005903 62 350 0.0 1.0 0.00 0.01 0.00 99 1021.8
20260904005803 62 350 0.0 1.0 0.00 0.01 0.00 99 1021.7
20260904005703 62 350 0.0 1.0 0.00 0.01 0.00 99 1021.6
20260904005603 62 350 0.0 1.0 0.00 0.01 0.00 99 1021.6
20260904005503 62 350 0.0 1.0 0.00 0.01 0.00 98 1021.7
20260904005403 62 350 0.0 1.0 0.00 0.01 0.00 98 1021.6
20260904005306 62 350 0.0 1.0 0.00 0.01 0.00 98 1021.6
20260904005203 62 350 0.0 1.0 0.00 0.01 0.00 98 1021.8
20260904005103 62 350 0.0 1.0 0.00 0.01 0.00 98 1021.8
20260904005003 62 350 0.0 1.0 0.00 0.01 0.00 98 1021.7
20260904004924 63 350 0.0 1.0 0.00 0.01 0.00 98 1022.0
20260904004824 63 350 0.0 1.0 0.00 0.01 0.00 98 1021.7
20260904004724 63 350 0.0 1.0 0.00 0.01 0.00 98 1021.8
20260904004624 62 350 0.0 1.0 0.00 0.01 0.00 98 1021.7
20260904004503 62 350 0.0 1.0 0.00 0.01 0.00 98 1021.7
20260904004424 62 350 0.0 1.0 0.00 0.01 0.00 98 1021.6
20260904004303 62 350 0.0 1.0 0.00 0.01 0.00 98 1021.7
20260904004203 62 350 0.0 1.0 0.00 0.01 0.00 98 1021.6
20260904004103 62 350 0.0 1.0 0.00 0.01 0.00 98 1021.7
20260904004003 62 350 0.0 1.0 0.00 0.01 0.00 98 1021.7
20260904003903 62 350 0.0 1.0 0.00 0.01 0.00 98 1021.7
20260904003803 62 350 0.0 1.0 0.00 0.01 0.00 98 1021.7
20260904003703 62 350 0.0 1.0 0.00 0.01 0.00 98 1021.6
20260904003603 62 350 0.0 1.0 0.00 0.01 0.00 98 1021.8
20260904003503 62 350 0.0 1.0 0.00 0.01 0.00 98 1021.5
20260904003403 62 350 0.0 1.0 0.00 0.01 0.00 98 1021.6
20260904003303 62 350 0.0 1.0 0.00 0.01 0.00 98 1021.6
20260904003203 62 350 0.0 1.0 0.00 0.01 0.00 98 1021.6
20260904003103 62 0 0.0 0.0 0.00 0.01 0.00 98 1021.7
20260904003003 62 350 0.0 1.0 0.00 0.01 0.00 98 1021.7
20260904002903 62 350 0.0 1.0 0.00 0.01 0.00 98 1021.7
20260904002803 62 350 0.0 1.0 0.00 0.01 0.00 98 1021.6
20260904002724 62 350 0.0 1.0 0.00 0.01 0.00 98 1021.8
20260904002603 62 350 0.0 1.0 0.00 0.01 0.00 98 1021.8
20260904002503 62 350 0.0 1.0 0.00 0.01 0.00 98 1021.8
20260904002424 62 350 0.0 1.0 0.00 0.01 0.00 98 1021.8
20260904002324 63 350 0.0 1.0 0.00 0.01 0.00 98 1021.7
20260904002203 63 350 0.0 1.0 0.00 0.01 0.00 98 1021.6
20260904002103 63 350 0.0 1.0 0.00 0.01 0.00 98 1021.7
20260904002024 63 350 0.0 1.0 0.00 0.01 0.00 98 1021.6
20260904001903 63 0 0.0 0.0 0.00 0.01 0.00 98 1021.7
20260904001803 63 0 0.0 0.0 0.00 0.01 0.00 98 1021.7
20260904001703 63 0 0.0 0.0 0.00 0.01 0.00 98 1021.7
20260904001603 63 0 0.0 0.0 0.00 0.01 0.00 98 1021.7
20260904001524 63 0 0.0 0.0 0.00 0.01 0.00 98 1021.7
20260904001403 63 0 0.0 0.0 0.00 0.01 0.00 98 1021.7
20260904001303 63 0 0.0 0.0 0.00 0.01 0.00 98 1021.5
20260904001203 63 0 0.0 0.0 0.00 0.01 0.00 98 1021.6
20260904001103 63 350 0.0 1.0 0.00 0.01 0.00 98 1021.7
20260904001003 64 350 0.0 1.0 0.00 0.01 0.00 97 1021.6
20260904000903 64 350 0.0 1.0 0.00 0.01 0.00 97 1021.8
20260904000803 64 350 0.0 1.0 0.00 0.01 0.00 97 1021.8
20260904000703 64 350 0.0 1.0 0.00 0.01 0.00 97 1021.8
20260904000603 64 350 0.0 1.0 0.00 0.01 0.00 97 1021.7
20260904000503 64 350 0.0 1.0 0.00 0.01 0.00 97 1021.9
20260904000403 64 350 0.0 1.0 0.00 0.01 0.00 97 1021.7
20260904000303 64 350 0.0 1.0 0.00 0.01 0.00 97 1021.6
20260904000204 64 350 0.0 1.0 0.00 0.01 0.00 97 1021.7
20260904000024 64 350 0.0 1.0 0.00 0.01 0.00 97 1021.7
20260903235903 64 350 0.0 1.0 0.00 0.01 0.00 97 1021.8
20260903235803 64 350 0.0 1.0 0.00 0.01 0.00 97 1021.9
20260903235703 64 350 0.0 1.0 0.00 0.01 0.00 97 1021.6
20260903235603 64 350 0.0 1.0 0.00 0.01 0.00 97 1021.7
20260903235503 64 350 0.0 1.0 0.00 0.01 0.00 97 1021.8
20260903235403 64 350 0.0 1.0 0.00 0.01 0.00 97 1021.7
20260903235305 64 350 0.0 1.0 0.00 0.01 0.00 97 1021.7
20260903235203 64 350 0.0 1.0 0.00 0.01 0.00 97 1021.7
20260903235103 64 350 0.0 1.0 0.00 0.01 0.00 97 1021.6
20260903235003 64 350 0.0 1.0 0.00 0.01 0.00 97 1021.6
20260903234903 64 350 0.0 1.0 0.00 0.01 0.00 97 1021.8
20260903234803 64 350 0.0 1.0 0.00 0.01 0.00 97 1021.6
20260903234724 64 350 0.0 1.0 0.00 0.01 0.00 97 1021.7
20260903234603 64 350 0.0 1.0 0.00 0.01 0.00 97 1021.8
20260903234503 64 350 0.0 1.0 0.00 0.01 0.00 96 1021.8
20260903234403 64 350 0.0 1.0 0.00 0.01 0.00 96 1021.7
20260903234303 64 350 0.0 1.0 0.00 0.01 0.00 96 1021.8
20260903234203 64 350 0.0 1.0 0.00 0.01 0.00 96 1021.5
20260903234103 64 350 0.0 1.0 0.00 0.01 0.00 96 1021.7
20260903234003 64 350 0.0 1.0 0.00 0.01 0.00 96 1021.8
20260903233903 64 350 0.0 1.0 0.00 0.01 0.00 96 1021.7
20260903233803 64 350 0.0 1.0 0.00 0.01 0.00 96 1021.6
20260903233703 64 350 0.0 1.0 0.00 0.01 0.00 96 1021.7
20260903233603 64 350 0.0 1.0 0.00 0.01 0.00 96 1021.6
20260903233503 63 350 0.0 1.0 0.00 0.01 0.00 96 1021.7
20260903233403 63 0 0.0 0.0 0.00 0.01 0.00 96 1021.7
20260903233303 63 0 0.0 0.0 0.00 0.01 0.00 96 1021.5
20260903233203 63 0 0.0 0.0 0.00 0.01 0.00 96 1021.6
20260903233103 63 0 0.0 0.0 0.00 0.01 0.00 96 1021.7
20260903233003 64 0 0.0 0.0 0.00 0.01 0.00 95 1021.8
20260903232903 64 0 0.0 0.0 0.00 0.01 0.00 95 1021.5
20260903232803 64 0 0.0 0.0 0.00 0.01 0.00 95 1021.6
20260903232703 64 0 0.0 0.0 0.00 0.01 0.00 95 1021.6
20260903232603 64 0 0.0 0.0 0.00 0.01 0.00 95 1021.7
20260903232504 64 0 0.0 0.0 0.00 0.01 0.00 95 1021.7
20260903232403 64 0 0.0 0.0 0.00 0.01 0.00 95 1021.7
20260903232306 64 0 0.0 0.0 0.00 0.01 0.00 95 1021.7
20260903232203 64 0 0.0 0.0 0.00 0.01 0.00 95 1021.7
20260903232103 64 0 0.0 0.0 0.00 0.01 0.00 95 1021.6
20260903232024 64 0 0.0 0.0 0.00 0.01 0.00 95 1021.6
20260903231903 64 0 0.0 0.0 0.00 0.01 0.00 95 1021.4
20260903231803 64 0 0.0 0.0 0.00 0.01 0.00 95 1021.7
20260903231724 64 0 0.0 0.0 0.00 0.01 0.00 95 1021.5
20260903231603 64 0 0.0 0.0 0.00 0.01 0.00 95 1021.7
20260903231503 64 0 0.0 0.0 0.00 0.01 0.00 95 1021.7
20260903231403 64 0 0.0 0.0 0.00 0.01 0.00 95 1021.6
20260903231303 64 0 0.0 0.0 0.00 0.01 0.00 95 1021.7
20260903231203 64 0 0.0 0.0 0.00 0.01 0.00 95 1021.6
20260903231103 64 0 0.0 0.0 0.00 0.01 0.00 95 1021.7
20260903231024 64 0 0.0 0.0 0.00 0.01 0.00 95 1021.7
20260903230903 64 0 0.0 0.0 0.00 0.01 0.00 95 1021.6
20260903230803 64 0 0.0 0.0 0.00 0.01 0.00 95 1021.5
20260903230703 64 0 0.0 0.0 0.00 0.01 0.00 95 1021.5
20260903230603 64 0 0.0 0.0 0.00 0.01 0.00 95 1021.6
20260903230503 64 0 0.0 0.0 0.00 0.01 0.00 95 1021.5
20260903230403 64 0 0.0 0.0 0.00 0.01 0.00 95 1021.4
20260903230303 64 349 0.0 1.0 0.00 0.01 0.00 95 1021.6
20260903230203 64 349 0.0 1.0 0.00 0.01 0.00 95 1021.7
20260903230003 64 349 0.0 1.0 0.00 0.01 0.00 95 1021.8
20260903225903 64 349 0.0 1.0 0.00 0.01 0.00 95 1021.6
20260903225803 65 349 0.0 1.0 0.00 0.01 0.00 95 1021.6
20260903225703 65 349 0.0 1.0 0.00 0.01 0.00 94 1021.5
20260903225603 65 349 0.0 1.0 0.00 0.01 0.00 94 1021.8
20260903225503 65 349 0.0 1.0 0.00 0.01 0.00 94 1021.7
20260903225403 64 349 0.0 1.0 0.00 0.01 0.00 94 1021.7
20260903225306 64 349 0.0 1.0 0.00 0.01 0.00 94 1021.5
20260903225203 64 0 0.0 0.0 0.00 0.01 0.00 94 1021.7
20260903225103 64 0 0.0 0.0 0.00 0.01 0.00 94 1021.5
20260903225003 65 0 0.0 0.0 0.00 0.01 0.00 94 1021.7
20260903224903 65 0 0.0 0.0 0.00 0.01 0.00 94 1021.6
20260903224803 65 0 0.0 0.0 0.00 0.01 0.00 94 1021.6
20260903224703 65 0 0.0 0.0 0.00 0.01 0.00 94 1021.6
20260903224603 65 0 0.0 0.0 0.00 0.01 0.00 94 1021.7
20260903224524 65 0 0.0 0.0 0.00 0.01 0.00 94 1021.6
20260903224403 65 0 0.0 0.0 0.00 0.01 0.00 93 1021.8
20260903224303 65 0 0.0 0.0 0.00 0.01 0.00 93 1021.6
20260903224203 65 0 0.0 0.0 0.00 0.01 0.00 93 1021.6
20260903224103 65 0 0.0 0.0 0.00 0.01 0.00 93 1021.7
20260903224003 65 0 0.0 0.0 0.00 0.01 0.00 93 1021.7
20260903223903 64 0 0.0 0.0 0.00 0.01 0.00 93 1021.6
20260903223803 64 0 0.0 0.0 0.00 0.01 0.00 93 1021.7
20260903223703 64 0 0.0 0.0 0.00 0.01 0.00 93 1021.6
20260903223624 65 0 0.0 0.0 0.00 0.01 0.00 93 1021.8
20260903223503 65 0 0.0 0.0 0.00 0.01 0.00 93 1021.6
20260903223424 65 0 0.0 0.0 0.00 0.01 0.00 93 1021.6
20260903223324 65 0 0.0 0.0 0.00 0.01 0.00 93 1021.5
20260903223203 65 0 0.0 0.0 0.00 0.01 0.00 93 1021.7
20260903223103 65 0 0.0 0.0 0.00 0.01 0.00 93 1021.7
20260903223003 65 0 0.0 0.0 0.00 0.01 0.00 93 1021.7
20260903222903 65 0 0.0 0.0 0.00 0.01 0.00 93 1021.8
20260903222803 65 0 0.0 0.0 0.00 0.01 0.00 92 1021.7
20260903222703 65 0 0.0 0.0 0.00 0.01 0.00 92 1021.7
20260903222603 65 0 0.0 0.0 0.00 0.01 0.00 92 1021.6
20260903222503 66 0 0.0 0.0 0.00 0.01 0.00 92 1021.9
20260903222403 66 0 0.0 0.0 0.00 0.01 0.00 92 1021.6
20260903222324 66 0 0.0 0.0 0.00 0.01 0.00 92 1021.6
20260903222203 66 0 0.0 0.0 0.00 0.01 0.00 92 1021.8
20260903222103 66 0 0.0 0.0 0.00 0.01 0.00 92 1021.7
20260903222003 66 0 0.0 0.0 0.00 0.01 0.00 92 1021.7
20260903221903 66 0 0.0 0.0 0.00 0.01 0.00 91 1021.8
20260903221803 66 349 0.0 1.0 0.00 0.01 0.00 91 1021.7
20260903221703 66 349 0.0 1.0 0.00 0.01 0.00 91 1021.6
20260903221603 66 349 0.0 1.0 0.00 0.01 0.00 91 1021.6
20260903221503 66 349 0.0 1.0 0.00 0.01 0.00 91 1021.7
20260903221403 67 349 0.0 1.0 0.00 0.01 0.00 91 1021.6
20260903221324 67 349 0.0 1.0 0.00 0.01 0.00 91 1021.6
20260903221224 67 349 0.0 1.0 0.00 0.01 0.00 91 1021.7
20260903221103 67 349 0.0 1.0 0.00 0.01 0.00 91 1021.6
20260903221024 67 349 0.0 1.0 0.00 0.01 0.00 91 1021.6
20260903220903 67 349 0.0 1.0 0.00 0.01 0.00 91 1021.7
20260903220803 67 349 0.0 1.0 0.00 0.01 0.00 91 1021.7
20260903220703 67 349 0.0 1.0 0.00 0.01 0.00 91 1021.6
20260903220603 67 349 0.0 1.0 0.00 0.01 0.00 92 1021.7
20260903220524 67 349 0.0 1.0 0.00 0.01 0.00 92 1021.6
20260903220424 67 349 0.0 1.0 0.00 0.01 0.00 92 1021.7
20260903220303 67 349 0.0 1.0 0.00 0.01 0.00 92 1021.6
20260903220203 67 0 0.0 0.0 0.00 0.01 0.00 92 1021.6
20260903220003 67 0 0.0 0.0 0.00 0.01 0.00 92 1021.4
20260903215903 67 0 0.0 0.0 0.00 0.01 0.01 92 1021.7
20260903215803 67 0 0.0 0.0 0.00 0.01 0.01 92 1021.7
20260903215703 67 0 0.0 0.0 0.00 0.01 0.01 92 1021.7
20260903215603 67 0 0.0 0.0 0.00 0.01 0.01 92 1021.6
20260903215503 67 0 0.0 0.0 0.00 0.01 0.01 92 1021.5
20260903215403 67 0 0.0 0.0 0.00 0.01 0.01 92 1021.6
20260903215306 67 0 0.0 0.0 0.00 0.01 0.01 92 1021.5
20260903215203 67 0 0.0 0.0 0.00 0.01 0.01 92 1021.6
20260903215103 67 0 0.0 0.0 0.00 0.01 0.01 92 1021.6
20260903215003 67 0 0.0 0.0 0.00 0.01 0.01 91 1021.7
20260903214903 67 0 0.0 0.0 0.00 0.01 0.01 91 1021.6
20260903214824 67 0 0.0 0.0 0.00 0.01 0.01 91 1021.7
20260903214703 67 0 0.0 0.0 0.00 0.01 0.01 91 1021.6
20260903214603 67 0 0.0 0.0 0.00 0.01 0.01 91 1021.6
20260903214503 67 0 0.0 0.0 0.00 0.01 0.01 91 1021.7
20260903214403 67 0 0.0 0.0 0.00 0.01 0.01 91 1021.4
20260903214303 67 0 0.0 0.0 0.00 0.01 0.01 91 1021.6
20260903214203 67 0 0.0 0.0 0.00 0.01 0.01 91 1021.7
20260903214103 67 0 0.0 0.0 0.00 0.01 0.01 91 1021.8
20260903214003 67 0 0.0 0.0 0.00 0.01 0.01 91 1021.7
20260903213924 67 0 0.0 0.0 0.00 0.01 0.01 91 1021.6
20260903213803 67 0 0.0 0.0 0.00 0.01 0.01 91 1021.6
20260903213703 67 0 0.0 0.0 0.00 0.01 0.01 91 1021.8
20260903213603 68 0 0.0 0.0 0.00 0.01 0.01 90 1021.6
20260903213503 68 0 0.0 0.0 0.00 0.01 0.01 90 1021.7
20260903213424 68 0 0.0 0.0 0.00 0.01 0.01 90 1021.6
20260903213303 68 0 0.0 0.0 0.00 0.01 0.01 90 1021.8
20260903213203 68 0 0.0 0.0 0.00 0.01 0.01 90 1021.8
20260903213103 68 0 0.0 0.0 0.00 0.01 0.01 90 1021.7
20260903213003 68 0 0.0 0.0 0.00 0.01 0.01 90 1021.6
20260903212924 68 0 0.0 0.0 0.00 0.01 0.01 90 1021.6
20260903212803 68 0 0.0 0.0 0.00 0.01 0.01 90 1021.6
20260903212703 68 349 0.0 1.0 0.00 0.01 0.01 90 1021.8
20260903212603 68 349 0.0 1.0 0.00 0.01 0.01 90 1021.6
20260903212503 68 349 0.0 1.0 0.00 0.01 0.01 90 1021.7
20260903212403 68 349 0.0 1.0 0.00 0.01 0.01 90 1021.7
20260903212306 68 349 0.0 1.0 0.00 0.01 0.01 90 1021.7
20260903212203 68 349 0.0 1.0 0.00 0.01 0.01 89 1021.7
20260903212124 68 349 0.0 1.0 0.00 0.01 0.01 89 1021.7
20260903212003 68 349 0.0 1.0 0.00 0.01 0.01 89 1021.6
20260903211903 67 349 0.0 1.0 0.00 0.01 0.01 89 1021.6
20260903211824 67 349 0.0 1.0 0.00 0.01 0.01 89 1021.6
20260903211724 67 349 0.0 1.0 0.00 0.01 0.01 89 1021.7
20260903211603 67 0 0.0 0.0 0.00 0.01 0.01 89 1021.8
20260903211503 67 0 0.0 0.0 0.00 0.01 0.01 89 1021.6
20260903211403 67 0 0.0 0.0 0.00 0.01 0.01 89 1021.5
20260903211303 67 0 0.0 0.0 0.00 0.01 0.01 89 1021.7
20260903211203 67 0 0.0 0.0 0.00 0.01 0.01 89 1021.7
20260903211103 67 0 0.0 0.0 0.00 0.01 0.01 88 1021.6
20260903211003 67 0 0.0 0.0 0.00 0.01 0.01 88 1021.7
20260903210924 67 0 0.0 0.0 0.00 0.01 0.01 88 1021.6
20260903210803 67 0 0.0 0.0 0.00 0.01 0.01 88 1021.6
20260903210703 67 0 0.0 0.0 0.00 0.01 0.01 88 1021.5
20260903210603 67 0 0.0 0.0 0.00 0.01 0.01 88 1021.5
20260903210503 67 0 0.0 0.0 0.00 0.01 0.01 88 1021.6
20260903210403 67 0 0.0 0.0 0.00 0.01 0.01 87 1021.6
20260903210303 68 0 0.0 0.0 0.00 0.01 0.01 87 1021.5
20260903210203 68 0 0.0 0.0 0.00 0.01 0.01 87 1021.5
20260903210003 68 0 0.0 0.0 0.00 0.01 0.01 87 1021.5
20260903205903 68 0 0.0 0.0 0.00 0.01 0.01 87 1021.6
20260903205803 68 0 0.0 0.0 0.00 0.01 0.01 87 1021.7
20260903205703 68 0 0.0 0.0 0.00 0.01 0.01 87 1021.6
20260903205603 69 0 0.0 0.0 0.00 0.01 0.01 87 1021.5
20260903205524 69 0 0.0 0.0 0.00 0.01 0.01 87 1021.6
20260903205403 69 0 0.0 0.0 0.00 0.01 0.01 87 1021.5
20260903205324 69 0 0.0 0.0 0.00 0.01 0.01 86 1021.5
20260903205203 69 0 0.0 0.0 0.00 0.01 0.01 86 1021.5
20260903205103 69 0 0.0 0.0 0.00 0.01 0.01 86 1021.7
20260903205003 69 0 0.0 0.0 0.00 0.01 0.01 86 1021.5
20260903204903 69 0 0.0 0.0 0.00 0.01 0.01 86 1021.3
20260903204803 69 0 0.0 0.0 0.00 0.01 0.01 86 1021.4
20260903204703 69 0 0.0 0.0 0.00 0.01 0.01 86 1021.3
20260903204603 69 0 0.0 0.0 0.00 0.01 0.01 86 1021.4
20260903204503 69 0 0.0 0.0 0.00 0.01 0.01 86 1021.3
20260903204403 68 0 0.0 0.0 0.00 0.01 0.01 86 1021.5
20260903204303 68 0 0.0 0.0 0.00 0.01 0.01 86 1021.4
20260903204203 69 0 0.0 0.0 0.00 0.01 0.01 85 1021.3
20260903204103 69 0 0.0 0.0 0.00 0.01 0.01 85 1021.3
20260903204003 69 0 0.0 0.0 0.00 0.01 0.01 85 1021.4
20260903203903 69 0 0.0 0.0 0.00 0.01 0.01 85 1021.6
20260903203803 69 0 0.0 0.0 0.00 0.01 0.01 84 1021.5
20260903203703 69 0 0.0 0.0 0.00 0.01 0.01 84 1021.3
20260903203603 69 0 0.0 0.0 0.00 0.01 0.01 84 1021.5
20260903203503 69 0 0.0 0.0 0.00 0.01 0.01 84 1021.5
20260903203403 69 350 0.0 1.0 0.00 0.01 0.01 83 1021.5
20260903203324 69 350 0.0 1.0 0.00 0.01 0.01 83 1021.5
20260903203203 70 350 0.0 1.0 0.00 0.01 0.01 83 1021.6
20260903203103 70 350 0.0 1.0 0.00 0.01 0.01 83 1021.6
20260903203003 70 350 0.0 1.0 0.00 0.01 0.01 83 1021.6